WO0TEN Weather Reports


Display with metric or nautical units.
time (UTC)temp
F
wind
direction
speed
MPH
gust
MPH
rain 1hr
in
rain 24hr
in
rain mn
in
humidity
%
barometer
mb
20240221072001 60 135 1.0 0.0 0.00 0.00 0.00 99
20240221071900 60 135 1.0 0.0 0.00 0.00 0.00 99
20240221071759 60 135 1.0 0.0 0.00 0.00 0.00 99
20240221071658 61 89 1.0 0.0 0.00 0.00 4.00 99
20240221071557 60 135 2.0 0.0 0.00 0.00 0.00 99
20240221071457 60 135 2.0 0.0 0.00 0.00 0.00 99
20240221071355 60 135 2.0 0.0 0.00 0.00 0.00 99
20240221071255 60 135 2.0 0.0 0.00 0.00 0.00 99
20240221071154 60 135 2.0 0.0 0.00 0.00 0.00 99
20240221071053 61 89 2.0 0.0 0.00 0.00 4.00 99
20240221070952 60 135 2.0 0.0 0.00 0.00 0.00 99
20240221070851 60 135 2.0 0.0 0.00 0.00 0.00 99
20240221070751 60 135 2.0 0.0 0.00 0.00 0.00 99
20240221070650 60 135 3.0 0.0 0.00 0.00 0.00 99
20240221070549 60 135 3.0 0.0 0.00 0.00 0.00 99
20240221070449 61 89 3.0 0.0 0.00 0.00 4.00 99
20240221070348 60 135 3.0 0.0 0.00 0.00 0.00 99
20240221070247 60 135 2.0 0.0 0.00 0.00 0.00 99
20240221070146 61 135 2.0 0.0 0.00 0.00 0.00 99
20240221070045 61 135 3.0 0.0 0.00 0.00 0.00 99
20240221065945 61 135 4.0 0.0 0.00 0.00 0.00 99
20240221065844 61 135 4.0 0.0 0.00 0.00 0.00 99
20240221065743 61 135 4.0 0.0 0.00 0.00 0.00 99
20240221065642 61 135 4.0 0.0 0.00 0.00 0.00 99
20240221065542 61 135 3.0 0.0 0.00 0.00 0.00 99
20240221065441 61 135 2.0 0.0 0.00 0.00 0.00 99
20240221065340 61 135 3.0 0.0 0.00 0.00 0.00 99
20240221065239 61 135 3.0 0.0 0.00 0.00 0.00 99
20240221065138 61 135 5.0 0.0 0.00 0.00 0.00 99
20240221065037 61 135 8.0 0.0 0.00 0.00 0.00 99
20240221064937 61 135 5.0 0.0 0.00 0.00 0.00 99
20240221064836 61 135 5.0 0.0 0.00 0.00 0.00 99
20240221064735 61 135 6.0 0.0 0.00 0.00 0.00 99
20240221064635 61 89 5.0 0.0 0.00 0.00 4.00 99
20240221064534 61 135 6.0 0.0 0.00 0.00 0.00 99
20240221064433 61 135 6.0 0.0 0.00 0.00 0.00 99
20240221064332 61 135 4.0 0.0 0.00 0.00 0.00 99
20240221064231 61 135 5.0 0.0 0.00 0.00 0.00 99
20240221064130 61 135 5.0 0.0 0.00 0.00 0.00 99
20240221064030 61 89 5.0 0.0 0.00 0.00 4.00 99
20240221063929 61 135 5.0 0.0 0.00 0.00 0.00 99
20240221063828 61 135 5.0 0.0 0.00 0.00 0.00 99
20240221063727 61 135 5.0 0.0 0.00 0.00 0.00 99
20240221063627 61 135 4.0 0.0 0.00 0.00 0.00 99
20240221063526 61 135 4.0 0.0 0.00 0.00 0.00 99
20240221063425 61 135 5.0 0.0 0.00 0.00 0.00 99
20240221063324 61 135 4.0 0.0 0.00 0.00 0.00 99
20240221063223 61 135 4.0 0.0 0.00 0.00 0.00 99
20240221063123 61 135 6.0 0.0 0.00 0.00 0.00 99
20240221063022 61 135 7.0 0.0 0.00 0.00 0.00 99
20240221062921 61 135 3.0 0.0 0.00 0.00 0.00 99
20240221062820 61 135 4.0 0.0 0.00 0.00 0.00 99
20240221062719 61 135 4.0 0.0 0.00 0.00 0.00 99
20240221062618 61 135 7.0 0.0 0.00 0.00 0.00 99
20240221062518 61 135 7.0 0.0 0.00 0.00 0.00 99
20240221062417 61 140 6.0 0.0 0.00 0.00 0.00 99
20240221062316 61 135 3.0 0.0 0.00 0.00 0.00 99
20240221062216 62 89 4.0 0.0 0.00 0.00 4.00 99
20240221062114 61 135 6.0 0.0 0.00 0.00 0.00 99
20240221062014 61 135 6.0 0.0 0.00 0.00 0.00 99
20240221061913 61 135 5.0 0.0 0.00 0.00 0.00 99
20240221061812 61 135 3.0 0.0 0.00 0.00 0.00 99
20240221061711 61 135 0.0 0.0 0.00 0.00 0.00 99
20240221061611 62 88 0.0 0.0 0.00 0.00 4.00 99
20240221060021 62 225 6.0 0.0 0.00 0.00 0.00 99
20240221055920 62 210 7.0 0.0 0.00 0.00 0.00 99
20240221055819 62 90 8.0 0.0 0.00 0.00 4.00 99
20240221055718 62 180 5.0 0.0 0.00 0.00 0.00 99
20240221055617 62 180 6.0 0.0 0.00 0.00 0.00 99
20240221055517 62 180 6.0 0.0 0.00 0.00 0.00 99
20240221055416 62 180 9.0 0.0 0.00 0.00 0.00 99
20240221055315 62 180 5.0 0.0 0.00 0.00 0.00 99
20240221055214 62 135 6.0 0.0 0.00 0.00 0.00 99
20240221055113 62 135 3.0 0.0 0.00 0.00 0.00 99
20240221055013 62 135 6.0 0.0 0.00 0.00 0.00 99
20240221054912 62 135 9.0 0.0 0.00 0.00 0.00 99
20240221054811 62 135 8.0 0.0 0.00 0.00 0.00 99
20240221054710 62 135 6.0 0.0 0.00 0.00 0.00 99
20240221054609 63 91 6.0 0.0 0.00 0.00 4.00 99
20240221054508 62 180 7.0 0.0 0.00 0.00 0.00 99
20240221054408 62 180 8.0 0.0 0.00 0.00 0.00 99
20240221054307 62 180 9.0 0.0 0.00 0.00 0.00 99
20240221054206 63 180 5.0 0.0 0.00 0.00 0.00 99
20240221054106 63 180 7.0 0.0 0.00 0.00 0.00 99
20240221054005 63 161 10.0 0.0 0.00 0.00 0.00 99
20240221053904 63 135 12.0 0.0 0.00 0.00 0.00 99
20240221053803 63 135 10.0 0.0 0.00 0.00 0.00 99
20240221053702 63 135 7.0 0.0 0.00 0.00 0.00 99
20240221053601 63 135 7.0 0.0 0.00 0.00 0.00 99
20240221053501 63 161 8.0 0.0 0.00 0.00 0.00 99
20240221053400 63 90 7.0 0.0 0.00 0.00 4.00 99
20240221053359 63 180 7.0 0.0 0.00 0.00 0.00 99
20240221053259 63 180 6.0 0.0 0.00 0.00 0.00 99
20240221053158 63 146 6.0 0.0 0.00 0.00 0.00 99
20240221053057 63 135 9.0 0.0 0.00 0.00 0.00 99
20240221052956 63 135 8.0 0.0 0.00 0.00 0.00 99
20240221052856 63 135 9.0 0.0 0.00 0.00 0.00 99
20240221052755 63 89 8.0 0.0 0.00 0.00 4.00 99
20240221052654 63 135 8.0 0.0 0.00 0.00 0.00 99
20240221052553 63 135 7.0 0.0 0.00 0.00 0.00 99
20240221052452 63 135 5.0 0.0 0.00 0.00 0.00 99
20240221052351 63 135 4.0 0.0 0.00 0.00 0.00 99
20240221052250 63 135 2.0 0.0 0.00 0.00 0.00 99
20240221052150 63 89 2.0 0.0 0.00 0.00 4.00 99
20240221052048 63 135 2.0 0.0 0.00 0.00 0.00 99
20240221051948 63 135 6.0 0.0 0.00 0.00 0.00 99
20240221051847 63 135 6.0 0.0 0.00 0.00 0.00 99
20240221051746 63 135 6.0 0.0 0.00 0.00 0.00 99
20240221051645 63 135 7.0 0.0 0.00 0.00 0.00 99
20240221051545 64 89 6.0 0.0 0.00 0.00 4.00 99
20240221051443 63 135 5.0 0.0 0.00 0.00 0.00 99
20240221051342 63 135 4.0 0.0 0.00 0.00 0.00 99
20240221051242 63 140 4.0 0.0 0.00 0.00 0.00 99
20240221051141 63 180 8.0 0.0 0.00 0.00 0.00 99
20240221051040 63 161 6.0 0.0 0.00 0.00 0.00 99
20240221050940 64 89 5.0 0.0 0.00 0.00 4.00 99
20240221050839 63 135 5.0 0.0 0.00 0.00 0.00 99
20240221050738 63 135 4.0 0.0 0.00 0.00 0.00 99
20240221050637 63 135 4.0 0.0 0.00 0.00 0.00 99
20240221050536 63 135 4.0 0.0 0.00 0.00 0.00 99
20240221050436 63 135 6.0 0.0 0.00 0.00 0.00 99
20240221050335 64 89 8.0 0.0 0.00 0.00 4.00 99
20240221050234 63 135 5.0 0.0 0.00 0.00 0.00 99
20240221050134 64 135 4.0 0.0 0.00 0.00 0.00 99
20240221050033 64 135 4.0 0.0 0.00 0.00 0.00 99
20240221045932 64 135 5.0 0.0 0.00 0.00 0.00 99
20240221045831 64 135 5.0 0.0 0.00 0.00 0.00 99
20240221045731 64 89 4.0 0.0 0.00 0.00 4.00 99
20240221045630 64 135 5.0 0.0 0.00 0.00 0.00 99
20240221045529 64 135 5.0 0.0 0.00 0.00 0.00 99
20240221045428 64 135 7.0 0.0 0.00 0.00 0.00 99
20240221045328 64 135 8.0 0.0 0.00 0.00 0.00 99
20240221045227 64 135 5.0 0.0 0.00 0.00 0.00 99
20240221045126 64 89 7.0 0.0 0.00 0.00 4.00 99
20240221045025 64 135 9.0 0.0 0.00 0.00 0.00 99
20240221044924 64 135 6.0 0.0 0.00 0.00 0.00 99
20240221044823 64 135 9.0 0.0 0.00 0.00 0.00 99
20240221044723 64 135 7.0 0.0 0.00 0.00 0.00 99
20240221044622 64 135 8.0 0.0 0.00 0.00 0.00 99
20240221044521 65 89 8.0 0.0 0.00 0.00 4.00 99
20240221044420 64 135 6.0 0.0 0.00 0.00 0.00 98
20240221044320 64 135 4.0 0.0 0.00 0.00 0.00 98
20240221044219 64 135 4.0 0.0 0.00 0.00 0.00 98
20240221044118 64 135 6.0 0.0 0.00 0.00 0.00 98
20240221044018 64 135 7.0 0.0 0.00 0.00 0.00 98
20240221043917 64 135 5.0 0.0 0.00 0.00 0.00 98
20240221043816 64 135 7.0 0.0 0.00 0.00 0.00 98
20240221043715 64 135 9.0 0.0 0.00 0.00 0.00 98
20240221043615 64 135 7.0 0.0 0.00 0.00 0.00 98
20240221043514 64 135 6.0 0.0 0.00 0.00 0.00 98
20240221043413 64 135 6.0 0.0 0.00 0.00 0.00 98
20240221043313 65 89 7.0 0.0 0.00 0.00 4.00 98
20240221043211 64 135 7.0 0.0 0.00 0.00 0.00 98
20240221043110 64 135 7.0 0.0 0.00 0.00 0.00 98
20240221043010 64 135 10.0 0.0 0.00 0.00 0.00 98
20240221042909 64 135 6.0 0.0 0.00 0.00 0.00 98
20240221042808 64 135 6.0 0.0 0.00 0.00 0.00 98
20240221042708 65 89 8.0 0.0 0.00 0.00 4.00 98
20240221042607 64 135 9.0 0.0 0.00 0.00 0.00 98
20240221042506 64 135 10.0 0.0 0.00 0.00 0.00 98
20240221042405 64 135 8.0 0.0 0.00 0.00 0.00 97
20240221042306 64 135 11.0 0.0 0.00 0.00 0.00 97
20240221042204 64 135 12.0 0.0 0.00 0.00 0.00 97
20240221042103 64 135 7.0 0.0 0.00 0.00 0.00 97
20240221042002 64 135 9.0 0.0 0.00 0.00 0.00 97
20240221041902 64 135 7.0 0.0 0.00 0.00 0.00 97
20240221041801 64 135 5.0 0.0 0.00 0.00 0.00 97
20240221041700 64 135 7.0 0.0 0.00 0.00 0.00 97
20240221041559 64 135 8.0 0.0 0.00 0.00 0.00 97
20240221041459 65 89 6.0 0.0 0.00 0.00 4.00 97
20240221041357 64 135 5.0 0.0 0.00 0.00 0.00 97
20240221041257 64 135 7.0 0.0 0.00 0.00 0.00 97
20240221041156 64 135 9.0 0.0 0.00 0.00 0.00 97
20240221041055 64 135 6.0 0.0 0.00 0.00 0.00 96
20240221040954 64 135 9.0 0.0 0.00 0.00 0.00 96
20240221040854 65 89 9.0 0.0 0.00 0.00 4.00 97
20240221040753 64 135 8.0 0.0 0.00 0.00 0.00 96
20240221040652 64 135 8.0 0.0 0.00 0.00 0.00 96
20240221040551 64 135 11.0 0.0 0.00 0.00 0.00 96
20240221040451 64 135 6.0 0.0 0.00 0.00 0.00 96
20240221040350 64 135 7.0 0.0 0.00 0.00 0.00 96
20240221040249 64 170 10.0 0.0 0.00 0.00 0.00 96
20240221040148 64 225 5.0 0.0 0.00 0.00 0.00 96
20240221040048 65 225 4.0 0.0 0.00 0.00 0.00 96
20240221035947 65 129 5.0 0.0 0.00 0.00 0.00 95
20240221035846 65 135 5.0 0.0 0.00 0.00 0.00 95
20240221035746 65 135 5.0 0.0 0.00 0.00 0.00 95
20240221035645 65 89 5.0 0.0 0.00 0.00 4.00 96
20240221035544 65 135 7.0 0.0 0.00 0.00 0.00 95
20240221035443 65 135 7.0 0.0 0.00 0.00 0.00 95
20240221035342 65 135 8.0 0.0 0.00 0.00 0.00 95
20240221035241 65 135 7.0 0.0 0.00 0.00 0.00 95
20240221035141 65 135 6.0 0.0 0.00 0.00 0.00 95
20240221035040 65 89 6.0 0.0 0.00 0.00 4.00 95
20240221034939 65 135 7.0 0.0 0.00 0.00 0.00 95
20240221034838 65 135 7.0 0.0 0.00 0.00 0.00 95
20240221034738 65 135 4.0 0.0 0.00 0.00 0.00 95
20240221034637 65 135 5.0 0.0 0.00 0.00 0.00 94
20240221034536 65 135 5.0 0.0 0.00 0.00 0.00 94
20240221034436 66 89 5.0 0.0 0.00 0.00 4.00 95
20240221034335 65 135 6.0 0.0 0.00 0.00 0.00 94
20240221034234 65 135 6.0 0.0 0.00 0.00 0.00 94
20240221034133 65 135 5.0 0.0 0.00 0.00 0.00 94
20240221034032 65 135 6.0 0.0 0.00 0.00 0.00 94
20240221033932 65 135 6.0 0.0 0.00 0.00 0.00 94
20240221033831 65 135 5.0 0.0 0.00 0.00 0.00 94
20240221033730 65 135 6.0 0.0 0.00 0.00 0.00 94
20240221033629 65 135 8.0 0.0 0.00 0.00 0.00 94
20240221033529 65 135 10.0 0.0 0.00 0.00 0.00 94
20240221033428 65 135 6.0 0.0 0.00 0.00 0.00 94
20240221033327 65 135 8.0 0.0 0.00 0.00 0.00 94
20240221033226 65 137 5.0 0.0 0.00 0.00 0.00 94
20240221033125 65 180 6.0 0.0 0.00 0.00 0.00 94
20240221033024 65 180 6.0 0.0 0.00 0.00 0.00 94
20240221032924 65 219 8.0 0.0 0.00 0.00 0.00 94
20240221032823 65 225 4.0 0.0 0.00 0.00 0.00 94
20240221032722 65 149 3.0 0.0 0.00 0.00 0.00 94
20240221032622 66 89 5.0 0.0 0.00 0.00 4.00 94
20240221032521 65 135 5.0 0.0 0.00 0.00 0.00 94
20240221032420 65 135 5.0 0.0 0.00 0.00 0.00 94
20240221032320 65 135 5.0 0.0 0.00 0.00 0.00 93
20240221032219 65 135 5.0 0.0 0.00 0.00 0.00 93
20240221032118 65 135 5.0 0.0 0.00 0.00 0.00 93
20240221032017 65 170 5.0 0.0 0.00 0.00 0.00 93
20240221031916 65 180 5.0 0.0 0.00 0.00 0.00 93
20240221031816 65 210 5.0 0.0 0.00 0.00 0.00 93
20240221031715 65 225 5.0 0.0 0.00 0.00 0.00 93
20240221031614 66 225 4.0 0.0 0.00 0.00 0.00 93
20240221031514 66 225 5.0 0.0 0.00 0.00 0.00 93
20240221031413 66 88 6.0 0.0 0.00 0.00 4.00 94
20240221031312 66 135 5.0 0.0 0.00 0.00 0.00 93
20240221031211 66 135 5.0 0.0 0.00 0.00 0.00 93
20240221031111 66 135 6.0 0.0 0.00 0.00 0.00 93
20240221031010 66 135 4.0 0.0 0.00 0.00 0.00 93
20240221030909 66 135 6.0 0.0 0.00 0.00 0.00 93
20240221030809 66 89 3.0 0.0 0.00 0.00 4.00 93
20240221030707 66 135 4.0 0.0 0.00 0.00 0.00 93
20240221030607 66 135 5.0 0.0 0.00 0.00 0.00 93
20240221030506 66 135 5.0 0.0 0.00 0.00 0.00 93
20240221030405 66 135 6.0 0.0 0.00 0.00 0.00 93
20240221030304 66 135 3.0 0.0 0.00 0.00 0.00 93
20240221030204 66 135 6.0 0.0 0.00 0.00 0.00 93
20240221030103 66 135 6.0 0.0 0.00 0.00 0.00 93
20240221030002 66 135 5.0 0.0 0.00 0.00 0.00 93
20240221025900 66 135 4.0 0.0 0.00 0.00 0.00 93
20240221025800 66 135 5.0 0.0 0.00 0.00 0.00 93
20240221025659 66 135 7.0 0.0 0.00 0.00 0.00 93
20240221025558 66 135 7.0 0.0 0.00 0.00 0.00 93
20240221025457 66 135 6.0 0.0 0.00 0.00 0.00 93
20240221025356 66 135 5.0 0.0 0.00 0.00 0.00 92
20240221025256 66 135 7.0 0.0 0.00 0.00 0.00 92
20240221025155 66 135 5.0 0.0 0.00 0.00 0.00 92
20240221025054 66 135 5.0 0.0 0.00 0.00 0.00 92
20240221024953 66 89 7.0 0.0 0.00 0.00 4.00 93
20240221024852 66 135 4.0 0.0 0.00 0.00 0.00 92
20240221024751 66 135 4.0 0.0 0.00 0.00 0.00 92
20240221024650 66 135 4.0 0.0 0.00 0.00 0.00 92
20240221024550 66 135 4.0 0.0 0.00 0.00 0.00 92
20240221024449 66 135 3.0 0.0 0.00 0.00 0.00 92
20240221024348 66 135 2.0 0.0 0.00 0.00 0.00 92
20240221024247 66 135 2.0 0.0 0.00 0.00 0.00 92
20240221024146 66 135 2.0 0.0 0.00 0.00 0.00 92
20240221024045 66 135 2.0 0.0 0.00 0.00 0.00 92
20240221023945 66 135 4.0 0.0 0.00 0.00 0.00 91
20240221023844 66 135 4.0 0.0 0.00 0.00 0.00 91
20240221023743 66 135 3.0 0.0 0.00 0.00 0.00 91
20240221023642 66 135 3.0 0.0 0.00 0.00 0.00 91
20240221023542 66 135 3.0 0.0 0.00 0.00 0.00 91
20240221023441 66 135 2.0 0.0 0.00 0.00 0.00 91
20240221023340 66 135 2.0 0.0 0.00 0.00 0.00 91
20240221023239 66 135 2.0 0.0 0.00 0.00 0.00 91
20240221023139 67 89 2.0 0.0 0.00 0.00 4.00 92
20240221023038 66 135 4.0 0.0 0.00 0.00 0.00 91
20240221022937 66 135 4.0 0.0 0.00 0.00 0.00 91
20240221022836 66 135 4.0 0.0 0.00 0.00 0.00 91
20240221022736 66 135 4.0 0.0 0.00 0.00 0.00 91
20240221022635 66 135 2.0 0.0 0.00 0.00 0.00 91
20240221022534 66 135 2.0 0.0 0.00 0.00 0.00 91
20240221022433 66 135 3.0 0.0 0.00 0.00 0.00 91
20240221022332 66 135 3.0 0.0 0.00 0.00 0.00 91
20240221022232 66 135 2.0 0.0 0.00 0.00 0.00 91
20240221022131 66 135 2.0 0.0 0.00 0.00 0.00 91
20240221022030 66 135 2.0 0.0 0.00 0.00 0.00 90
20240221021929 67 89 2.0 0.0 0.00 0.00 4.00 91
20240221021828 66 135 2.0 0.0 0.00 0.00 0.00 90
20240221021727 67 135 2.0 0.0 0.00 0.00 0.00 90
20240221021627 67 135 2.0 0.0 0.00 0.00 0.00 90
20240221021526 67 135 2.0 0.0 0.00 0.00 0.00 90
20240221021425 67 135 3.0 0.0 0.00 0.00 0.00 90
20240221021324 67 135 2.0 0.0 0.00 0.00 0.00 90
20240221021223 67 135 2.0 0.0 0.00 0.00 0.00 90
20240221021123 67 135 2.0 0.0 0.00 0.00 0.00 90
20240221021022 67 135 3.0 0.0 0.00 0.00 0.00 90
20240221020921 67 135 3.0 0.0 0.00 0.00 0.00 90
20240221020820 67 135 3.0 0.0 0.00 0.00 0.00 90
20240221020720 68 89 3.0 0.0 0.00 0.00 4.00 90
20240221020619 67 135 2.0 0.0 0.00 0.00 0.00 90
20240221020517 67 135 1.0 0.0 0.00 0.00 0.00 90
20240221020417 67 135 2.0 0.0 0.00 0.00 0.00 90
20240221020316 67 135 2.0 0.0 0.00 0.00 0.00 90
20240221020215 67 135 2.0 0.0 0.00 0.00 0.00 90
20240221020115 68 89 2.0 0.0 0.00 0.00 4.00 90
20240221020014 67 135 2.0 0.0 0.00 0.00 0.00 90
20240221015913 67 135 2.0 0.0 0.00 0.00 0.00 90
20240221015812 67 135 2.0 0.0 0.00 0.00 0.00 90
20240221015712 67 135 2.0 0.0 0.00 0.00 0.00 90
20240221015611 67 135 2.0 0.0 0.00 0.00 0.00 90
20240221015510 67 135 2.0 0.0 0.00 0.00 0.00 90
20240221015409 68 135 1.0 0.0 0.00 0.00 0.00 89
20240221015309 68 135 1.0 0.0 0.00 0.00 0.00 89
20240221015208 68 135 1.0 0.0 0.00 0.00 0.00 89
20240221015107 68 135 1.0 0.0 0.00 0.00 0.00 89
20240221015007 68 135 1.0 0.0 0.00 0.00 0.00 89
20240221014906 68 89 1.0 0.0 0.00 0.00 4.00 89
20240221014805 68 135 1.0 0.0 0.00 0.00 0.00 89
20240221014704 68 135 1.0 0.0 0.00 0.00 0.00 89
20240221014603 68 135 2.0 0.0 0.00 0.00 0.00 89
20240221014503 68 135 2.0 0.0 0.00 0.00 0.00 89
20240221014402 68 135 2.0 0.0 0.00 0.00 0.00 88
20240221014301 68 89 2.0 0.0 0.00 0.00 4.00 89
20240221014159 68 135 3.0 0.0 0.00 0.00 0.00 88
20240221014059 68 135 3.0 0.0 0.00 0.00 0.00 88
20240221013958 68 135 3.0 0.0 0.00 0.00 0.00 88
20240221013857 68 135 3.0 0.0 0.00 0.00 0.00 88
20240221013757 68 135 5.0 0.0 0.00 0.00 0.00 88
20240221013656 68 135 5.0 0.0 0.00 0.00 0.00 88
20240221013555 68 135 3.0 0.0 0.00 0.00 0.00 88
20240221013454 68 135 2.0 0.0 0.00 0.00 0.00 88
20240221013353 68 161 3.0 0.0 0.00 0.00 0.00 88
20240221013253 68 225 3.0 0.0 0.00 0.00 0.00 88
20240221013152 68 225 3.0 0.0 0.00 0.00 0.00 88
20240221013051 68 135 2.0 0.0 0.00 0.00 0.00 88
20240221012950 68 135 2.0 0.0 0.00 0.00 0.00 87
20240221012849 68 135 3.0 0.0 0.00 0.00 0.00 87
20240221012749 68 135 3.0 0.0 0.00 0.00 0.00 87
20240221012648 68 135 3.0 0.0 0.00 0.00 0.00 87
20240221012548 68 135 3.0 0.0 0.00 0.00 0.00 87
20240221012447 69 89 3.0 0.0 0.00 0.00 4.00 87
20240221012345 68 135 4.0 0.0 0.00 0.00 0.00 87
20240221012245 68 135 4.0 0.0 0.00 0.00 0.00 86
20240221012144 68 135 2.0 0.0 0.00 0.00 0.00 86
20240221012043 68 135 2.0 0.0 0.00 0.00 0.00 86
20240221011943 69 135 2.0 0.0 0.00 0.00 0.00 86
20240221011842 69 135 2.0 0.0 0.00 0.00 0.00 86
20240221011741 69 135 2.0 0.0 0.00 0.00 0.00 86
20240221011640 69 135 1.0 0.0 0.00 0.00 0.00 85
20240221011540 69 135 1.0 0.0 0.00 0.00 0.00 85
20240221011439 69 135 1.0 0.0 0.00 0.00 0.00 85
20240221011338 69 135 1.0 0.0 0.00 0.00 0.00 85
20240221011238 69 89 1.0 0.0 0.00 0.00 4.00 85
20240221011137 69 135 1.0 0.0 0.00 0.00 0.00 85
20240221011036 69 135 1.0 0.0 0.00 0.00 0.00 84
20240221010935 69 135 1.0 0.0 0.00 0.00 0.00 84
20240221010834 69 135 1.0 0.0 0.00 0.00 0.00 84
20240221010734 69 135 1.0 0.0 0.00 0.00 0.00 84
20240221010633 69 135 1.0 0.0 0.00 0.00 0.00 84
20240221010532 70 135 1.0 0.0 0.00 0.00 0.00 83
20240221010431 70 135 1.0 0.0 0.00 0.00 0.00 83
20240221010330 70 135 3.0 0.0 0.00 0.00 0.00 83
20240221010229 70 135 3.0 0.0 0.00 0.00 0.00 83
20240221010129 70 135 3.0 0.0 0.00 0.00 0.00 83
20240221010028 70 89 3.0 0.0 0.00 0.00 4.00 83
20240221005927 70 135 3.0 0.0 0.00 0.00 0.00 82
20240221005826 70 135 3.0 0.0 0.00 0.00 0.00 82
20240221005726 70 135 3.0 0.0 0.00 0.00 0.00 82
20240221005625 70 135 2.0 0.0 0.00 0.00 0.00 82
20240221005524 70 135 2.0 0.0 0.00 0.00 0.00 82
20240221005423 70 135 2.0 0.0 0.00 0.00 0.00 81
20240221005322 70 135 2.0 0.0 0.00 0.00 0.00 81
20240221005221 70 135 1.0 0.0 0.00 0.00 0.00 81
20240221005121 70 135 1.0 0.0 0.00 0.00 0.00 81
20240221005020 70 135 1.0 0.0 0.00 0.00 0.00 81
20240221004919 70 135 2.0 0.0 0.00 0.00 0.00 81
20240221004818 71 89 2.0 0.0 0.00 0.00 4.00 81
20240221004717 70 135 2.0 0.0 0.00 0.00 0.00 80
20240221004617 71 135 2.0 0.0 0.00 0.00 0.00 80
20240221004515 71 135 3.0 0.0 0.00 0.00 0.00 80
20240221004415 71 135 3.0 0.0 0.00 0.00 0.00 80
20240221004314 71 135 3.0 0.0 0.00 0.00 0.00 80
20240221004213 71 135 4.0 0.0 0.00 0.00 0.00 80
20240221004112 71 135 5.0 0.0 0.00 0.00 0.00 80
20240221004011 71 135 5.0 0.0 0.00 0.00 0.00 80
20240221003911 71 135 3.0 0.0 0.00 0.00 0.00 79
20240221003810 71 135 2.0 0.0 0.00 0.00 0.00 79
20240221003709 71 135 3.0 0.0 0.00 0.00 0.00 79
20240221003609 72 89 3.0 0.0 0.00 0.00 4.00 80
20240221003508 71 135 3.0 0.0 0.00 0.00 0.00 79
20240221003407 71 135 3.0 0.0 0.00 0.00 0.00 79
20240221003306 71 135 3.0 0.0 0.00 0.00 0.00 79
20240221003205 71 153 5.0 0.0 0.00 0.00 0.00 79
20240221003104 72 180 5.0 0.0 0.00 0.00 0.00 79
20240221003004 72 90 3.0 0.0 0.00 0.00 4.00 79
20240221002902 72 137 2.0 0.0 0.00 0.00 0.00 79
20240221002801 72 135 3.0 0.0 0.00 0.00 0.00 78
20240221002701 72 135 6.0 0.0 0.00 0.00 0.00 78
20240221002600 72 135 6.0 0.0 0.00 0.00 0.00 78
20240221002459 72 135 7.0 0.0 0.00 0.00 0.00 78
20240221002358 72 89 5.0 0.0 0.00 0.00 4.00 79
20240221002257 72 135 8.0 0.0 0.00 0.00 0.00 78
20240221002156 72 135 6.0 0.0 0.00 0.00 0.00 78
20240221002055 72 135 5.0 0.0 0.00 0.00 0.00 78
20240221001954 72 135 4.0 0.0 0.00 0.00 0.00 78
20240221001854 72 135 5.0 0.0 0.00 0.00 0.00 78
20240221001753 72 135 4.0 0.0 0.00 0.00 0.00 78
20240221001652 72 135 4.0 0.0 0.00 0.00 0.00 77
20240221001551 72 135 4.0 0.0 0.00 0.00 0.00 77
20240221001450 73 135 3.0 0.0 0.00 0.00 0.00 77
20240221001350 73 135 3.0 0.0 0.00 0.00 0.00 77
20240221001249 73 135 5.0 0.0 0.00 0.00 0.00 77
20240221001148 73 135 6.0 0.0 0.00 0.00 0.00 76
20240221001047 73 135 3.0 0.0 0.00 0.00 0.00 76
20240221000947 73 135 2.0 0.0 0.00 0.00 0.00 76
20240221000846 73 135 2.0 0.0 0.00 0.00 0.00 75
20240221000745 73 135 2.0 0.0 0.00 0.00 0.00 75
20240221000645 73 135 2.0 0.0 0.00 0.00 0.00 75
20240221000544 74 89 3.0 0.0 0.00 0.00 4.00 75
20240221000442 73 135 3.0 0.0 0.00 0.00 0.00 74
20240221000341 73 135 5.0 0.0 0.00 0.00 0.00 74
20240221000241 73 135 7.0 0.0 0.00 0.00 0.00 74
20240221000140 73 135 7.0 0.0 0.00 0.00 0.00 74
20240221000039 73 135 5.0 0.0 0.00 0.00 0.00 74
20240220235939 74 89 6.0 0.0 0.00 0.00 4.00 74
20240220235838 73 135 6.0 0.0 0.00 0.00 0.00 74
20240220235737 73 135 9.0 0.0 0.00 0.00 0.00 74
20240220235636 74 135 11.0 0.0 0.00 0.00 0.00 74
20240220235535 74 135 11.0 0.0 0.00 0.00 0.00 74
20240220235434 74 135 6.0 0.0 0.00 0.00 0.00 74
20240220235334 74 89 6.0 0.0 0.00 0.00 4.00 75
20240220235232 74 135 8.0 0.0 0.00 0.00 0.00 74
20240220235132 74 135 5.0 0.0 0.00 0.00 0.00 74
20240220235031 74 135 7.0 0.0 0.00 0.00 0.00 74
20240220234930 74 135 6.0 0.0 0.00 0.00 0.00 74
20240220234829 74 143 8.0 0.0 0.00 0.00 0.00 74
20240220234729 75 87 10.0 0.0 0.00 0.00 4.00 74
20240220234628 74 123 5.0 0.0 0.00 0.00 0.00 74
20240220234527 74 135 6.0 0.0 0.00 0.00 0.00 73
20240220234427 74 135 9.0 0.0 0.00 0.00 0.00 73
20240220234326 74 135 4.0 0.0 0.00 0.00 0.00 73
20240220234225 74 140 8.0 0.0 0.00 0.00 0.00 73
20240220234124 75 90 11.0 0.0 0.00 0.00 4.00 74
20240220234023 75 170 12.0 0.0 0.00 0.00 0.00 73
20240220233922 75 135 12.0 0.0 0.00 0.00 0.00 73
20240220233822 75 135 8.0 0.0 0.00 0.00 0.00 73
20240220233721 75 170 10.0 0.0 0.00 0.00 0.00 73
20240220233620 75 157 8.0 0.0 0.00 0.00 0.00 73
20240220233519 75 135 9.0 0.0 0.00 0.00 0.00 73
20240220233418 75 135 7.0 0.0 0.00 0.00 0.00 73
20240220233318 75 135 10.0 0.0 0.00 0.00 0.00 73
20240220233217 75 135 9.0 0.0 0.00 0.00 0.00 73
20240220233116 75 135 8.0 0.0 0.00 0.00 0.00 72
20240220233015 75 140 9.0 0.0 0.00 0.00 0.00 73
20240220232914 75 89 8.0 0.0 0.00 0.00 4.00 73
20240220232813 75 194 10.0 0.0 0.00 0.00 0.00 73
20240220232712 75 135 7.0 0.0 0.00 0.00 0.00 73
20240220232612 75 135 6.0 0.0 0.00 0.00 0.00 73
20240220232511 75 143 12.0 0.0 0.00 0.00 0.00 73
20240220232410 75 153 12.0 0.0 0.00 0.00 0.00 73
20240220232310 76 88 7.0 0.0 0.00 0.00 4.00 73
20240220232208 75 135 6.0 0.0 0.00 0.00 0.00 73
20240220232108 75 135 9.0 0.0 0.00 0.00 0.00 73
20240220232007 75 135 13.0 0.0 0.00 0.00 0.00 73
20240220231906 75 135 12.0 0.0 0.00 0.00 0.00 73
20240220231806 75 135 12.0 0.0 0.00 0.00 0.00 73
20240220231705 76 89 8.0 0.0 0.00 0.00 4.00 73
20240220231604 75 132 9.0 0.0 0.00 0.00 0.00 72
20240220231503 75 135 14.0 0.0 0.00 0.00 0.00 72
20240220231402 75 135 9.0 0.0 0.00 0.00 0.00 72
20240220231302 75 135 10.0 0.0 0.00 0.00 0.00 72
20240220231201 75 135 11.0 0.0 0.00 0.00 0.00 72
20240220231100 76 89 11.0 0.0 0.00 0.00 4.00 72
20240220230959 76 135 12.0 0.0 0.00 0.00 0.00 72
20240220230858 76 135 17.0 0.0 0.00 0.00 0.00 72
20240220230758 76 135 8.0 0.0 0.00 0.00 0.00 72
20240220230657 76 137 10.0 0.0 0.00 0.00 0.00 72
20240220230556 76 170 11.0 0.0 0.00 0.00 0.00 72
20240220230456 76 89 11.0 0.0 0.00 0.00 4.00 72
20240220230354 76 135 10.0 0.0 0.00 0.00 0.00 72
20240220230254 76 135 7.0 0.0 0.00 0.00 0.00 72
20240220230153 76 135 10.0 0.0 0.00 0.00 0.00 72
20240220230052 76 135 8.0 0.0 0.00 0.00 0.00 72
20240220225951 76 135 10.0 0.0 0.00 0.00 0.00 72
20240220225850 76 89 9.0 0.0 0.00 0.00 4.00 72
20240220225749 76 135 13.0 0.0 0.00 0.00 0.00 72
20240220225648 76 180 13.0 0.0 0.00 0.00 0.00 72
20240220225548 76 135 9.0 0.0 0.00 0.00 0.00 72
20240220225447 76 135 8.0 0.0 0.00 0.00 0.00 72
20240220225346 76 135 14.0 0.0 0.00 0.00 0.00 73
20240220225246 76 89 9.0 0.0 0.00 0.00 4.00 73
20240220225144 76 135 10.0 0.0 0.00 0.00 0.00 72
20240220225043 76 135 14.0 0.0 0.00 0.00 0.00 72
20240220224943 76 135 12.0 0.0 0.00 0.00 0.00 73
20240220224842 76 135 16.0 0.0 0.00 0.00 0.00 73
20240220224741 76 135 10.0 0.0 0.00 0.00 0.00 73
20240220224640 76 146 9.0 0.0 0.00 0.00 0.00 72
20240220224539 76 149 13.0 0.0 0.00 0.00 0.00 72
20240220224439 77 135 15.0 0.0 0.00 0.00 0.00 72
20240220224338 77 135 13.0 0.0 0.00 0.00 0.00 72
20240220224237 77 140 18.0 0.0 0.00 0.00 0.00 72
20240220224137 77 157 7.0 0.0 0.00 0.00 0.00 73
20240220224036 77 149 8.0 0.0 0.00 0.00 0.00 73
20240220223935 77 184 5.0 0.0 0.00 0.00 0.00 73
20240220223834 77 180 6.0 0.0 0.00 0.00 0.00 73
20240220223733 77 180 10.0 0.0 0.00 0.00 0.00 73
20240220223633 77 189 5.0 0.0 0.00 0.00 0.00 72
20240220223532 77 219 9.0 0.0 0.00 0.00 0.00 72
20240220223432 77 91 9.0 0.0 0.00 0.00 4.00 72
20240220223330 77 135 11.0 0.0 0.00 0.00 0.00 72
20240220223230 77 135 14.0 0.0 0.00 0.00 0.00 72
20240220223129 77 143 8.0 0.0 0.00 0.00 0.00 72
20240220223028 77 180 7.0 0.0 0.00 0.00 0.00 72
20240220222928 77 213 12.0 0.0 0.00 0.00 0.00 72
20240220222827 77 225 9.0 0.0 0.00 0.00 0.00 72
20240220222726 77 189 6.0 0.0 0.00 0.00 0.00 72
20240220222625 77 135 8.0 0.0 0.00 0.00 0.00 72
20240220222525 77 135 6.0 0.0 0.00 0.00 0.00 71
20240220222424 77 146 10.0 0.0 0.00 0.00 0.00 71
20240220222323 77 135 10.0 0.0 0.00 0.00 0.00 71
20240220222222 77 89 10.0 0.0 0.00 0.00 4.00 72
20240220222121 77 135 6.0 0.0 0.00 0.00 0.00 71
20240220222020 77 135 6.0 0.0 0.00 0.00 0.00 71
20240220221920 77 135 6.0 0.0 0.00 0.00 0.00 71
20240220221819 77 135 7.0 0.0 0.00 0.00 0.00 71
20240220221719 77 135 6.0 0.0 0.00 0.00 0.00 70
20240220221618 77 135 10.0 0.0 0.00 0.00 0.00 70
20240220221517 77 135 13.0 0.0 0.00 0.00 0.00 70
20240220221416 77 166 14.0 0.0 0.00 0.00 0.00 70
20240220221316 77 135 13.0 0.0 0.00 0.00 0.00 70
20240220221215 77 129 10.0 0.0 0.00 0.00 0.00 70
20240220221114 77 135 13.0 0.0 0.00 0.00 0.00 70
20240220221013 77 135 10.0 0.0 0.00 0.00 0.00 71
20240220220912 77 135 5.0 0.0 0.00 0.00 0.00 71
20240220220811 77 198 5.0 0.0 0.00 0.00 0.00 72
20240220220711 77 225 9.0 0.0 0.00 0.00 0.00 71
20240220220610 77 225 7.0 0.0 0.00 0.00 0.00 71
20240220220510 77 166 9.0 0.0 0.00 0.00 0.00 71
20240220220409 78 89 10.0 0.0 0.00 0.00 4.00 71
20240220220308 77 180 7.0 0.0 0.00 0.00 0.00 71
20240220220207 77 189 13.0 0.0 0.00 0.00 0.00 71
20240220220106 77 140 10.0 0.0 0.00 0.00 0.00 71
20240220220005 77 135 8.0 0.0 0.00 0.00 0.00 70
20240220215905 77 135 13.0 0.0 0.00 0.00 0.00 70
20240220215804 77 135 11.0 0.0 0.00 0.00 0.00 70
20240220215703 77 140 10.0 0.0 0.00 0.00 0.00 70
20240220215602 78 135 6.0 0.0 0.00 0.00 0.00 70
20240220215501 78 135 14.0 0.0 0.00 0.00 0.00 70
20240220215401 78 135 11.0 0.0 0.00 0.00 0.00 70
20240220215300 78 135 12.0 0.0 0.00 0.00 0.00 70
20240220215159 78 88 15.0 0.0 0.00 0.00 4.00 70
20240220215058 78 135 10.0 0.0 0.00 0.00 0.00 69
20240220214957 78 135 12.0 0.0 0.00 0.00 0.00 70
20240220214856 78 129 11.0 0.0 0.00 0.00 0.00 69
20240220214755 78 153 10.0 0.0 0.00 0.00 0.00 69
20240220214655 78 137 11.0 0.0 0.00 0.00 0.00 69
20240220214554 78 89 11.0 0.0 0.00 0.00 4.00 70
20240220214453 78 168 10.0 0.0 0.00 0.00 0.00 69
20240220214352 78 135 8.0 0.0 0.00 0.00 0.00 69
20240220214251 78 153 8.0 0.0 0.00 0.00 0.00 70
20240220214150 78 225 5.0 0.0 0.00 0.00 0.00 70
20240220214049 78 198 8.0 0.0 0.00 0.00 0.00 70
20240220213949 78 89 8.0 0.0 0.00 0.00 4.00 71
20240220213848 78 135 11.0 0.0 0.00 0.00 0.00 70
20240220213747 78 135 10.0 0.0 0.00 0.00 0.00 69
20240220213646 78 128 14.0 0.0 0.00 0.00 0.00 69
20240220213546 78 129 11.0 0.0 0.00 0.00 0.00 69
20240220213445 78 135 17.0 0.0 0.00 0.00 0.00 69
20240220213344 78 137 13.0 0.0 0.00 0.00 0.00 69
20240220213243 78 191 13.0 0.0 0.00 0.00 0.00 69
20240220213142 78 135 6.0 0.0 0.00 0.00 0.00 69
20240220213042 78 161 10.0 0.0 0.00 0.00 0.00 69
20240220212941 78 135 14.0 0.0 0.00 0.00 0.00 69
20240220212840 78 135 11.0 0.0 0.00 0.00 0.00 68
20240220212740 78 89 11.0 0.0 0.00 0.00 4.00 69
20240220212639 78 135 13.0 0.0 0.00 0.00 0.00 69
20240220212538 78 135 9.0 0.0 0.00 0.00 0.00 68
20240220212437 78 135 12.0 0.0 0.00 0.00 0.00 68
20240220212336 78 138 9.0 0.0 0.00 0.00 0.00 69
20240220212235 78 135 16.0 0.0 0.00 0.00 0.00 69
20240220212134 78 135 13.0 0.0 0.00 0.00 0.00 69
20240220212033 78 135 13.0 0.0 0.00 0.00 0.00 69
20240220211932 78 135 9.0 0.0 0.00 0.00 0.00 69
20240220211832 78 135 9.0 0.0 0.00 0.00 0.00 69
20240220211731 78 135 11.0 0.0 0.00 0.00 0.00 69
20240220211630 78 135 9.0 0.0 0.00 0.00 0.00 69
20240220211529 78 93 11.0 0.0 0.00 0.00 4.00 69
20240220211428 78 138 8.0 0.0 0.00 0.00 0.00 70
20240220211328 78 140 9.0 0.0 0.00 0.00 0.00 69
20240220211227 78 135 15.0 0.0 0.00 0.00 0.00 70
20240220211126 78 129 8.0 0.0 0.00 0.00 0.00 70
20240220211025 78 135 8.0 0.0 0.00 0.00 0.00 70
20240220210925 79 89 6.0 0.0 0.00 0.00 4.00 71
20240220210823 78 135 7.0 0.0 0.00 0.00 0.00 70
20240220210722 78 135 9.0 0.0 0.00 0.00 0.00 70
20240220210622 78 135 10.0 0.0 0.00 0.00 0.00 70
20240220210521 78 135 5.0 0.0 0.00 0.00 0.00 71
20240220210420 78 174 7.0 0.0 0.00 0.00 0.00 71
20240220210320 79 87 8.0 0.0 0.00 0.00 4.00 71
20240220210219 78 137 10.0 0.0 0.00 0.00 0.00 71
20240220210118 78 135 6.0 0.0 0.00 0.00 0.00 71
20240220210017 78 135 5.0 0.0 0.00 0.00 0.00 71
20240220205917 78 180 5.0 0.0 0.00 0.00 0.00 71
20240220205816 78 135 7.0 0.0 0.00 0.00 0.00 71
20240220205715 78 135 10.0 0.0 0.00 0.00 0.00 71
20240220205614 78 135 15.0 0.0 0.00 0.00 0.00 71
20240220205514 78 146 15.0 0.0 0.00 0.00 0.00 71
20240220205413 78 135 9.0 0.0 0.00 0.00 0.00 71
20240220205312 78 135 5.0 0.0 0.00 0.00 0.00 71
20240220205212 78 135 6.0 0.0 0.00 0.00 0.00 70
20240220205111 78 89 11.0 0.0 0.00 0.00 4.00 71
20240220205010 78 135 6.0 0.0 0.00 0.00 0.00 70
20240220204909 78 135 12.0 0.0 0.00 0.00 0.00 70
20240220204808 78 135 13.0 0.0 0.00 0.00 0.00 70
20240220204707 78 135 13.0 0.0 0.00 0.00 0.00 71
20240220204607 78 145 11.0 0.0 0.00 0.00 0.00 70
20240220204506 78 161 6.0 0.0 0.00 0.00 0.00 71
20240220204405 78 189 4.0 0.0 0.00 0.00 0.00 70
20240220204304 78 140 6.0 0.0 0.00 0.00 0.00 69
20240220204203 78 135 8.0 0.0 0.00 0.00 0.00 70
20240220204103 78 135 10.0 0.0 0.00 0.00 0.00 70
20240220204002 78 135 15.0 0.0 0.00 0.00 0.00 70
20240220203901 78 135 12.0 0.0 0.00 0.00 0.00 71
20240220203800 78 135 13.0 0.0 0.00 0.00 0.00 70
20240220203659 78 135 5.0 0.0 0.00 0.00 0.00 71
20240220203559 78 135 5.0 0.0 0.00 0.00 0.00 71
20240220203458 78 140 6.0 0.0 0.00 0.00 0.00 70
20240220203357 78 135 8.0 0.0 0.00 0.00 0.00 70
20240220203256 79 89 9.0 0.0 0.00 0.00 4.00 70
20240220203155 78 135 11.0 0.0 0.00 0.00 0.00 70
20240220203054 78 135 12.0 0.0 0.00 0.00 0.00 70
20240220202954 78 135 10.0 0.0 0.00 0.00 0.00 70
20240220202853 78 170 8.0 0.0 0.00 0.00 0.00 69
20240220202753 78 135 9.0 0.0 0.00 0.00 0.00 70
20240220202652 78 135 8.0 0.0 0.00 0.00 0.00 70
20240220202551 78 135 8.0 0.0 0.00 0.00 0.00 69
20240220202450 78 135 7.0 0.0 0.00 0.00 0.00 70
20240220202349 78 157 7.0 0.0 0.00 0.00 0.00 70
20240220202249 78 140 7.0 0.0 0.00 0.00 0.00 69
20240220202148 78 135 8.0 0.0 0.00 0.00 0.00 70
20240220202047 78 135 12.0 0.0 0.00 0.00 0.00 69
20240220201946 78 149 10.0 0.0 0.00 0.00 0.00 69
20240220201846 78 180 9.0 0.0 0.00 0.00 0.00 68
20240220201745 78 189 9.0 0.0 0.00 0.00 0.00 69
20240220201644 78 225 9.0 0.0 0.00 0.00 0.00 69
20240220201543 78 225 5.0 0.0 0.00 0.00 0.00 70
20240220201443 79 89 10.0 0.0 0.00 0.00 4.00 70
20240220201342 78 135 8.0 0.0 0.00 0.00 0.00 71
20240220201241 78 135 13.0 0.0 0.00 0.00 0.00 70
20240220201140 78 138 7.0 0.0 0.00 0.00 0.00 71
20240220201040 78 132 8.0 0.0 0.00 0.00 0.00 70
20240220200939 78 135 10.0 0.0 0.00 0.00 0.00 70
20240220200838 78 135 5.0 0.0 0.00 0.00 0.00 71
20240220200737 78 135 6.0 0.0 0.00 0.00 0.00 70
20240220200636 78 135 9.0 0.0 0.00 0.00 0.00 70
20240220200536 78 135 9.0 0.0 0.00 0.00 0.00 70
20240220200435 78 135 9.0 0.0 0.00 0.00 0.00 70
20240220200334 78 135 8.0 0.0 0.00 0.00 0.00 70
20240220200234 78 89 6.0 0.0 0.00 0.00 4.00 70
20240220200133 78 135 10.0 0.0 0.00 0.00 0.00 71
20240220200032 78 135 6.0 0.0 0.00 0.00 0.00 72
20240220195931 78 135 3.0 0.0 0.00 0.00 0.00 71
20240220195830 78 135 4.0 0.0 0.00 0.00 0.00 72
20240220195730 78 135 3.0 0.0 0.00 0.00 0.00 72
20240220195629 78 89 4.0 0.0 0.00 0.00 4.00 72
20240220195528 78 135 7.0 0.0 0.00 0.00 0.00 71
20240220195427 78 153 11.0 0.0 0.00 0.00 0.00 70
20240220195327 78 135 6.0 0.0 0.00 0.00 0.00 70
20240220195226 78 135 6.0 0.0 0.00 0.00 0.00 70
20240220195125 78 135 7.0 0.0 0.00 0.00 0.00 70
20240220195025 78 89 8.0 0.0 0.00 0.00 4.00 71
20240220194924 78 153 8.0 0.0 0.00 0.00 0.00 71
20240220194823 78 135 5.0 0.0 0.00 0.00 0.00 70
20240220194722 78 123 6.0 0.0 0.00 0.00 0.00 70
20240220194622 78 135 11.0 0.0 0.00 0.00 0.00 70
20240220194521 78 135 7.0 0.0 0.00 0.00 0.00 71
20240220194420 78 140 9.0 0.0 0.00 0.00 0.00 71
20240220194319 78 166 8.0 0.0 0.00 0.00 0.00 72
20240220194219 78 140 10.0 0.0 0.00 0.00 0.00 71
20240220194118 78 135 4.0 0.0 0.00 0.00 0.00 71
20240220194017 78 135 6.0 0.0 0.00 0.00 0.00 70
20240220193916 77 135 11.0 0.0 0.00 0.00 0.00 69
20240220193816 78 89 10.0 0.0 0.00 0.00 4.00 70
20240220193715 77 135 11.0 0.0 0.00 0.00 0.00 70
20240220193614 77 135 9.0 0.0 0.00 0.00 0.00 71
20240220193513 77 135 11.0 0.0 0.00 0.00 0.00 72
20240220193412 77 132 11.0 0.0 0.00 0.00 0.00 72
20240220193312 77 140 11.0 0.0 0.00 0.00 0.00 72
20240220193211 77 135 11.0 0.0 0.00 0.00 0.00 72
20240220193110 77 170 9.0 0.0 0.00 0.00 0.00 72
20240220193009 77 225 9.0 0.0 0.00 0.00 0.00 74
20240220192908 77 213 8.0 0.0 0.00 0.00 0.00 74
20240220192808 77 135 5.0 0.0 0.00 0.00 0.00 73
20240220192707 77 135 7.0 0.0 0.00 0.00 0.00 73
20240220192606 77 132 12.0 0.0 0.00 0.00 0.00 72
20240220192505 77 135 11.0 0.0 0.00 0.00 0.00 72
20240220192404 77 168 13.0 0.0 0.00 0.00 0.00 72
20240220192306 77 132 8.0 0.0 0.00 0.00 0.00 73
20240220192203 77 135 6.0 0.0 0.00 0.00 0.00 74
20240220192103 77 135 7.0 0.0 0.00 0.00 0.00 74
20240220192002 77 89 4.0 0.0 0.00 0.00 4.00 76
20240220191900 77 135 8.0 0.0 0.00 0.00 0.00 74
20240220191800 77 135 7.0 0.0 0.00 0.00 0.00 75
20240220191659 77 135 13.0 0.0 0.00 0.00 0.00 74
20240220191558 77 175 3.0 0.0 0.00 0.00 0.00 75
20240220191457 77 180 5.0 0.0 0.00 0.00 0.00 75
20240220191357 77 89 5.0 0.0 0.00 0.00 4.00 76
20240220191256 77 135 6.0 0.0 0.00 0.00 0.00 75
20240220191155 77 135 7.0 0.0 0.00 0.00 0.00 75
20240220191054 76 135 8.0 0.0 0.00 0.00 0.00 74
20240220190954 76 135 3.0 0.0 0.00 0.00 0.00 75
20240220190853 76 135 7.0 0.0 0.00 0.00 0.00 74
20240220190752 77 89 7.0 0.0 0.00 0.00 4.00 75
20240220190651 76 135 5.0 0.0 0.00 0.00 0.00 75
20240220190550 76 135 8.0 0.0 0.00 0.00 0.00 75
20240220190450 76 135 9.0 0.0 0.00 0.00 0.00 76
20240220190349 76 135 8.0 0.0 0.00 0.00 0.00 76
20240220190248 76 135 5.0 0.0 0.00 0.00 0.00 76
20240220190147 76 89 8.0 0.0 0.00 0.00 4.00 75
20240220190046 76 137 9.0 0.0 0.00 0.00 0.00 75
20240220185946 76 198 8.0 0.0 0.00 0.00 0.00 75
20240220185845 76 135 7.0 0.0 0.00 0.00 0.00 76
20240220185744 76 135 6.0 0.0 0.00 0.00 0.00 76
20240220185644 76 135 5.0 0.0 0.00 0.00 0.00 76
20240220185543 76 90 7.0 0.0 0.00 0.00 4.00 76
20240220185442 76 135 1.0 0.0 0.00 0.00 0.00 75
20240220185341 76 135 2.0 0.0 0.00 0.00 0.00 75
20240220185241 76 135 2.0 0.0 0.00 0.00 0.00 74
20240220185140 76 135 2.0 0.0 0.00 0.00 0.00 75
20240220185039 75 135 2.0 0.0 0.00 0.00 0.00 75
20240220184939 76 89 3.0 0.0 0.00 0.00 4.00 75
20240220184838 75 135 4.0 0.0 0.00 0.00 0.00 74
20240220184737 75 135 4.0 0.0 0.00 0.00 0.00 73
20240220184636 75 135 6.0 0.0 0.00 0.00 0.00 74
20240220184536 75 135 8.0 0.0 0.00 0.00 0.00 73
20240220184435 75 135 9.0 0.0 0.00 0.00 0.00 75
20240220184334 76 92 6.0 0.0 0.00 0.00 4.00 76
20240220184232 75 149 4.0 0.0 0.00 0.00 0.00 76
20240220184132 75 135 6.0 0.0 0.00 0.00 0.00 76
20240220184031 75 135 7.0 0.0 0.00 0.00 0.00 76
20240220183930 75 135 7.0 0.0 0.00 0.00 0.00 76
20240220183829 75 135 8.0 0.0 0.00 0.00 0.00 76
20240220183729 75 89 6.0 0.0 0.00 0.00 4.00 76
20240220183628 75 135 6.0 0.0 0.00 0.00 0.00 76
20240220183527 75 135 6.0 0.0 0.00 0.00 0.00 76
20240220183426 75 135 6.0 0.0 0.00 0.00 0.00 76
20240220183325 75 135 6.0 0.0 0.00 0.00 0.00 76
20240220183224 74 135 5.0 0.0 0.00 0.00 0.00 76
20240220183124 75 89 7.0 0.0 0.00 0.00 4.00 77
20240220183023 74 137 9.0 0.0 0.00 0.00 0.00 76
20240220182922 74 180 9.0 0.0 0.00 0.00 0.00 78
20240220182821 74 161 3.0 0.0 0.00 0.00 0.00 77
20240220182721 74 135 4.0 0.0 0.00 0.00 0.00 77
20240220182620 74 135 8.0 0.0 0.00 0.00 0.00 77
20240220182519 74 135 9.0 0.0 0.00 0.00 0.00 76
20240220182418 74 135 9.0 0.0 0.00 0.00 0.00 76
20240220182317 74 135 9.0 0.0 0.00 0.00 0.00 76
20240220182217 74 135 8.0 0.0 0.00 0.00 0.00 76
20240220182116 74 135 11.0 0.0 0.00 0.00 0.00 76
20240220182015 73 135 10.0 0.0 0.00 0.00 0.00 76
20240220181914 73 219 7.0 0.0 0.00 0.00 0.00 77
20240220181813 73 135 5.0 0.0 0.00 0.00 0.00 76
20240220181712 73 135 8.0 0.0 0.00 0.00 0.00 75
20240220181611 73 135 10.0 0.0 0.00 0.00 0.00 76
20240220181510 73 180 8.0 0.0 0.00 0.00 0.00 77
20240220181409 73 225 10.0 0.0 0.00 0.00 0.00 78
20240220181309 73 91 7.0 0.0 0.00 0.00 4.00 78
20240220181208 73 225 7.0 0.0 0.00 0.00 0.00 78
20240220181107 73 189 4.0 0.0 0.00 0.00 0.00 78
20240220181006 73 153 10.0 0.0 0.00 0.00 0.00 77
20240220180906 73 135 10.0 0.0 0.00 0.00 0.00 78
20240220180805 73 135 4.0 0.0 0.00 0.00 0.00 79
20240220180704 73 89 5.0 0.0 0.00 0.00 4.00 79
20240220180603 73 135 8.0 0.0 0.00 0.00 0.00 78
20240220180502 73 225 8.0 0.0 0.00 0.00 0.00 79
20240220180402 72 225 3.0 0.0 0.00 0.00 0.00 79
20240220180301 72 210 3.0 0.0 0.00 0.00 0.00 78
20240220180200 72 180 3.0 0.0 0.00 0.00 0.00 78
20240220180059 73 90 5.0 0.0 0.00 0.00 4.00 78
20240220175958 72 180 7.0 0.0 0.00 0.00 0.00 78
20240220175857 72 180 5.0 0.0 0.00 0.00 0.00 77
20240220175757 72 180 5.0 0.0 0.00 0.00 0.00 77
20240220175656 72 180 6.0 0.0 0.00 0.00 0.00 78
20240220175555 72 149 7.0 0.0 0.00 0.00 0.00 78
20240220175454 72 89 6.0 0.0 0.00 0.00 4.00 80
20240220175353 72 135 7.0 0.0 0.00 0.00 0.00 79
20240220175252 72 140 7.0 0.0 0.00 0.00 0.00 79
20240220175151 72 180 4.0 0.0 0.00 0.00 0.00 80
20240220175051 72 180 6.0 0.0 0.00 0.00 0.00 78
20240220174950 72 180 9.0 0.0 0.00 0.00 0.00 78
20240220174849 72 87 12.0 0.0 0.00 0.00 4.00 79
20240220174748 71 225 9.0 0.0 0.00 0.00 0.00 78
20240220174647 71 216 7.0 0.0 0.00 0.00 0.00 78
20240220174546 71 225 8.0 0.0 0.00 0.00 0.00 78
20240220174446 71 140 8.0 0.0 0.00 0.00 0.00 78
20240220174345 71 157 11.0 0.0 0.00 0.00 0.00 77
20240220174244 71 89 7.0 0.0 0.00 0.00 4.00 79
20240220174143 71 135 9.0 0.0 0.00 0.00 0.00 77
20240220174042 71 135 16.0 0.0 0.00 0.00 0.00 78
20240220173942 71 135 10.0 0.0 0.00 0.00 0.00 79
20240220173841 70 135 9.0 0.0 0.00 0.00 0.00 81
20240220173740 70 135 6.0 0.0 0.00 0.00 0.00 81
20240220173639 71 89 5.0 0.0 0.00 0.00 4.00 82
20240220173538 70 135 5.0 0.0 0.00 0.00 0.00 82
20240220173437 70 135 8.0 0.0 0.00 0.00 0.00 82
20240220173337 70 135 9.0 0.0 0.00 0.00 0.00 82
20240220173236 70 135 8.0 0.0 0.00 0.00 0.00 82
20240220173135 70 206 7.0 0.0 0.00 0.00 0.00 83
20240220173035 70 91 6.0 0.0 0.00 0.00 4.00 84
20240220172934 70 225 7.0 0.0 0.00 0.00 0.00 84
20240220172833 70 206 3.0 0.0 0.00 0.00 0.00 85
20240220172732 70 135 3.0 0.0 0.00 0.00 0.00 85
20240220172631 70 135 3.0 0.0 0.00 0.00 0.00 85
20240220172531 70 225 3.0 0.0 0.00 0.00 0.00 85
20240220172430 70 91 8.0 0.0 0.00 0.00 4.00 85
20240220172329 70 225 8.0 0.0 0.00 0.00 0.00 84
20240220172228 70 225 6.0 0.0 0.00 0.00 0.00 84
20240220172127 70 225 5.0 0.0 0.00 0.00 0.00 84
20240220172027 70 225 5.0 0.0 0.00 0.00 0.00 84
20240220171926 69 202 7.0 0.0 0.00 0.00 0.00 84
20240220171824 70 88 8.0 0.0 0.00 0.00 4.00 85
20240220171723 69 135 8.0 0.0 0.00 0.00 0.00 85
20240220171622 69 135 12.0 0.0 0.00 0.00 0.00 86
20240220171521 69 137 7.0 0.0 0.00 0.00 0.00 88
20240220171421 68 180 9.0 0.0 0.00 0.00 0.00 90
20240220171320 68 180 8.0 0.0 0.00 0.00 0.00 90
20240220171220 68 90 5.0 0.0 0.00 0.00 4.00 91
20240220171118 68 180 4.0 0.0 0.00 0.00 0.00 90
20240220171018 68 180 5.0 0.0 0.00 0.00 0.00 90
20240220170917 68 180 6.0 0.0 0.00 0.00 0.00 91
20240220170815 68 180 4.0 0.0 0.00 0.00 0.00 91
20240220170714 68 180 5.0 0.0 0.00 0.00 0.00 91
20240220170613 68 90 4.0 0.0 0.00 0.00 4.00 92
20240220170512 67 180 2.0 0.0 0.00 0.00 0.00 92
20240220170411 67 180 3.0 0.0 0.00 0.00 0.00 92
20240220170311 67 216 3.0 0.0 0.00 0.00 0.00 91
20240220170210 67 225 3.0 0.0 0.00 0.00 0.00 91
20240220170109 67 225 5.0 0.0 0.00 0.00 0.00 91
20240220170009 67 91 6.0 0.0 0.00 0.00 4.00 92
20240220165907 67 225 8.0 0.0 0.00 0.00 0.00 92
20240220165807 67 225 3.0 0.0 0.00 0.00 0.00 92
20240220165706 66 170 2.0 0.0 0.00 0.00 0.00 92
20240220165605 66 135 4.0 0.0 0.00 0.00 0.00 92
20240220165505 66 135 4.0 0.0 0.00 0.00 0.00 92
20240220165404 67 89 4.0 0.0 0.00 0.00 4.00 93
20240220165306 66 135 4.0 0.0 0.00 0.00 0.00 92
20240220165202 66 135 4.0 0.0 0.00 0.00 0.00 92
20240220165101 66 135 4.0 0.0 0.00 0.00 0.00 93
20240220165001 66 135 4.0 0.0 0.00 0.00 0.00 93
20240220164859 66 135 4.0 0.0 0.00 0.00 0.00 92
20240220164759 67 89 4.0 0.0 0.00 0.00 4.00 93
20240220164658 66 135 5.0 0.0 0.00 0.00 0.00 92
20240220164557 66 135 7.0 0.0 0.00 0.00 0.00 92
20240220164456 66 135 5.0 0.0 0.00 0.00 0.00 92
20240220164356 66 135 6.0 0.0 0.00 0.00 0.00 93
20240220164255 65 135 6.0 0.0 0.00 0.00 0.00 93
20240220164154 65 135 8.0 0.0 0.00 0.00 0.00 93
20240220164053 65 135 6.0 0.0 0.00 0.00 0.00 93
20240220163953 65 135 6.0 0.0 0.00 0.00 0.00 93
20240220163852 65 135 8.0 0.0 0.00 0.00 0.00 94
20240220163751 64 135 7.0 0.0 0.00 0.00 0.00 94
20240220163650 64 135 7.0 0.0 0.00 0.00 0.00 94
20240220163550 65 89 7.0 0.0 0.00 0.00 4.00 95
20240220163449 64 135 7.0 0.0 0.00 0.00 0.00 94
20240220163348 64 135 5.0 0.0 0.00 0.00 0.00 95
20240220163247 64 135 2.0 0.0 0.00 0.00 0.00 95
20240220163147 64 135 1.0 0.0 0.00 0.00 0.00 95
20240220163046 64 135 1.0 0.0 0.00 0.00 0.00 95
20240220162945 64 89 1.0 0.0 0.00 0.00 4.00 96
20240220162844 63 135 1.0 0.0 0.00 0.00 0.00 96
20240220162743 63 135 3.0 0.0 0.00 0.00 0.00 96
20240220162643 63 135 3.0 0.0 0.00 0.00 0.00 96
20240220162542 63 135 3.0 0.0 0.00 0.00 0.00 96
20240220162441 62 135 3.0 0.0 0.00 0.00 0.00 96
20240220162341 63 89 3.0 0.0 0.00 0.00 4.00 97
20240220162239 62 135 3.0 0.0 0.00 0.00 0.00 96
20240220162139 62 135 3.0 0.0 0.00 0.00 0.00 96
20240220162038 62 135 3.0 0.0 0.00 0.00 0.00 96
20240220161937 62 135 3.0 0.0 0.00 0.00 0.00 97
20240220161837 62 135 3.0 0.0 0.00 0.00 0.00 97
20240220161736 62 135 3.0 0.0 0.00 0.00 0.00 97
20240220161635 62 135 3.0 0.0 0.00 0.00 0.00 97
20240220161534 62 135 3.0 0.0 0.00 0.00 0.00 97
20240220161434 62 135 3.0 0.0 0.00 0.00 0.00 97
20240220161333 62 135 3.0 0.0 0.00 0.00 0.00 97
20240220161232 61 135 3.0 0.0 0.00 0.00 0.00 97
20240220161131 62 89 7.0 0.0 0.00 0.00 4.00 97
20240220161030 61 135 7.0 0.0 0.00 0.00 0.00 97
20240220160929 61 135 2.0 0.0 0.00 0.00 0.00 97
20240220160829 61 135 3.0 0.0 0.00 0.00 0.00 97
20240220160728 61 135 3.0 0.0 0.00 0.00 0.00 98
20240220160627 61 135 5.0 0.0 0.00 0.00 0.00 98
20240220160526 61 89 5.0 0.0 0.00 0.00 4.00 98
20240220160425 60 135 5.0 0.0 0.00 0.00 0.00 98
20240220160324 60 135 3.0 0.0 0.00 0.00 0.00 98
20240220160224 60 135 4.0 0.0 0.00 0.00 0.00 99
20240220160123 59 135 4.0 0.0 0.00 0.00 0.00 99
20240220160022 59 135 4.0 0.0 0.00 0.00 0.00 99
20240220155922 60 91 4.0 0.0 0.00 0.00 4.00 99
20240220155821 59 170 3.0 0.0 0.00 0.00 0.00 99
20240220155720 58 180 2.0 0.0 0.00 0.00 0.00 99
20240220155619 58 180 2.0 0.0 0.00 0.00 0.00 99
20240220155518 58 180 2.0 0.0 0.00 0.00 0.00 99
20240220155418 58 180 2.0 0.0 0.00 0.00 0.00 99
20240220155317 58 180 1.0 0.0 0.00 0.00 0.00 99
20240220155216 58 180 1.0 0.0 0.00 0.00 0.00 99
20240220155115 58 180 1.0 0.0 0.00 0.00 0.00 99
20240220155014 58 180 0.0 0.0 0.00 0.00 0.00 99
20240220154913 58 180 0.0 0.0 0.00 0.00 0.00 99
20240220154813 57 180 0.0 0.0 0.00 0.00 0.00 99
20240220154712 58 91 0.0 0.0 0.00 0.00 4.00 99
20240220154611 57 225 0.0 0.0 0.00 0.00 0.00 99
20240220154510 57 225 0.0 0.0 0.00 0.00 0.00 99
20240220154409 57 225 0.0 0.0 0.00 0.00 0.00 99
20240220154309 57 225 0.0 0.0 0.00 0.00 0.00 99
20240220154208 56 225 0.0 0.0 0.00 0.00 0.00 99
20240220154108 56 91 0.0 0.0 0.00 0.00 4.00 99
20240220154007 56 225 0.0 0.0 0.00 0.00 0.00 99
20240220153906 56 225 0.0 0.0 0.00 0.00 0.00 99
20240220153805 55 225 0.0 0.0 0.00 0.00 0.00 99
20240220153705 55 225 0.0 0.0 0.00 0.00 0.00 99
20240220153604 55 225 0.0 0.0 0.00 0.00 0.00 99
20240220153503 55 225 0.0 0.0 0.00 0.00 0.00 99
20240220153402 55 225 0.0 0.0 0.00 0.00 0.00 99
20240220153302 55 189 0.0 0.0 0.00 0.00 0.00 99
20240220153201 55 135 0.0 0.0 0.00 0.00 0.00 99
20240220153100 55 135 0.0 0.0 0.00 0.00 0.00 99
20240220152959 54 135 0.0 0.0 0.00 0.00 0.00 99
20240220152858 55 89 0.0 0.0 0.00 0.00 4.00 99
20240220152757 54 135 0.0 0.0 0.00 0.00 0.00 99
20240220152656 54 135 0.0 0.0 0.00 0.00 0.00 99
20240220152556 54 135 0.0 0.0 0.00 0.00 0.00 99
20240220152455 54 135 0.0 0.0 0.00 0.00 0.00 99
20240220152354 54 135 0.0 0.0 0.00 0.00 0.00 99
20240220152253 54 135 0.0 0.0 0.00 0.00 0.00 99
20240220152152 54 135 0.0 0.0 0.00 0.00 0.00 99
20240220152051 54 135 0.0 0.0 0.00 0.00 0.00 99
20240220151951 54 135 0.0 0.0 0.00 0.00 0.00 99
20240220151850 54 135 0.0 0.0 0.00 0.00 0.00 99
20240220151750 54 135 0.0 0.0 0.00 0.00 0.00 99
20240220151649 53 135 0.0 0.0 0.00 0.00 0.00 99
20240220151548 53 135 0.0 0.0 0.00 0.00 0.00 99
20240220151447 53 135 0.0 0.0 0.00 0.00 0.00 99
20240220151347 53 135 0.0 0.0 0.00 0.00 0.00 99
20240220151246 53 135 0.0 0.0 0.00 0.00 0.00 99
20240220151145 53 135 0.0 0.0 0.00 0.00 0.00 99
20240220151045 53 89 0.0 0.0 0.00 0.00 4.00 99
20240220150944 52 135 0.0 0.0 0.00 0.00 0.00 99
20240220150843 52 135 0.0 0.0 0.00 0.00 0.00 99
20240220150742 52 135 0.0 0.0 0.00 0.00 0.00 99
20240220150642 52 135 0.0 0.0 0.00 0.00 0.00 99
20240220150541 52 135 0.0 0.0 0.00 0.00 0.00 99
20240220150440 52 89 0.0 0.0 0.00 0.00 4.00 99
20240220150339 52 135 0.0 0.0 0.00 0.00 0.00 99
20240220150239 52 135 0.0 0.0 0.00 0.00 0.00 99
20240220150138 52 135 0.0 0.0 0.00 0.00 0.00 99
20240220150037 52 135 0.0 0.0 0.00 0.00 0.00 99
20240220145936 52 135 0.0 0.0 0.00 0.00 0.00 99
20240220145836 52 89 0.0 0.0 0.00 0.00 4.00 99
20240220145735 51 135 0.0 0.0 0.00 0.00 0.00 99
20240220145634 51 135 0.0 0.0 0.00 0.00 0.00 99
20240220145533 51 135 0.0 0.0 0.00 0.00 0.00 99
20240220145432 50 135 0.0 0.0 0.00 0.00 0.00 99
20240220145332 50 135 0.0 0.0 0.00 0.00 0.00 99
20240220145231 50 135 0.0 0.0 0.00 0.00 0.00 99
20240220145130 50 135 0.0 0.0 0.00 0.00 0.00 99
20240220145030 50 135 0.0 0.0 0.00 0.00 0.00 99
20240220144929 50 135 0.0 0.0 0.00 0.00 0.00 99
20240220144828 50 135 0.0 0.0 0.00 0.00 0.00 99
20240220144728 50 135 0.0 0.0 0.00 0.00 0.00 99
20240220144627 50 135 0.0 0.0 0.00 0.00 0.00 99
20240220144526 49 135 0.0 0.0 0.00 0.00 0.00 99
20240220144425 49 135 0.0 0.0 0.00 0.00 0.00 99
20240220144325 49 135 0.0 0.0 0.00 0.00 0.00 99
20240220144224 49 135 0.0 0.0 0.00 0.00 0.00 99
20240220144123 49 135 0.0 0.0 0.00 0.00 0.00 99
20240220144023 50 89 0.0 0.0 0.00 0.00 4.00 99
20240220143922 49 135 0.0 0.0 0.00 0.00 0.00 99
20240220143821 49 135 0.0 0.0 0.00 0.00 0.00 99
20240220143720 49 135 0.0 0.0 0.00 0.00 0.00 99
20240220143620 48 135 0.0 0.0 0.00 0.00 0.00 99
20240220143519 48 135 0.0 0.0 0.00 0.00 0.00 99
20240220143419 48 135 0.0 0.0 0.00 0.00 0.00 99
20240220143318 48 135 0.0 0.0 0.00 0.00 0.00 99
20240220143217 48 135 0.0 0.0 0.00 0.00 0.00 99
20240220143116 48 135 0.0 0.0 0.00 0.00 0.00 99
20240220143016 48 135 0.0 0.0 0.00 0.00 0.00 99
20240220142915 47 135 0.0 0.0 0.00 0.00 0.00 99
20240220142815 48 89 0.0 0.0 0.00 0.00 4.00 99
20240220142713 47 135 0.0 0.0 0.00 0.00 0.00 99
20240220142613 47 135 0.0 0.0 0.00 0.00 0.00 99
20240220142512 47 135 0.0 0.0 0.00 0.00 0.00 99
20240220142411 46 135 0.0 0.0 0.00 0.00 0.00 99
20240220142311 46 135 0.0 0.0 0.00 0.00 0.00 99
20240220142210 46 135 0.0 0.0 0.00 0.00 0.00 99
20240220142109 46 135 0.0 0.0 0.00 0.00 0.00 99
20240220142008 46 135 0.0 0.0 0.00 0.00 0.00 99
20240220141908 46 135 0.0 0.0 0.00 0.00 0.00 99
20240220141807 46 135 0.0 0.0 0.00 0.00 0.00 99
20240220141706 45 135 0.0 0.0 0.00 0.00 0.00 99
20240220141606 46 89 0.0 0.0 0.00 0.00 4.00 99
20240220141505 45 135 0.0 0.0 0.00 0.00 0.00 99
20240220141404 45 135 0.0 0.0 0.00 0.00 0.00 99
20240220141303 45 135 0.0 0.0 0.00 0.00 0.00 99
20240220141202 45 135 0.0 0.0 0.00 0.00 0.00 99
20240220141102 45 135 0.0 0.0 0.00 0.00 0.00 99
20240220141001 45 135 0.0 0.0 0.00 0.00 0.00 99
20240220140900 45 135 0.0 0.0 0.00 0.00 0.00 99
20240220140759 45 135 0.0 0.0 0.00 0.00 0.00 99
20240220140659 45 135 0.0 0.0 0.00 0.00 0.00 99
20240220140558 44 135 0.0 0.0 0.00 0.00 0.00 99
20240220140457 44 135 0.0 0.0 0.00 0.00 0.00 99
20240220140356 44 135 0.0 0.0 0.00 0.00 0.00 99
20240220140256 44 135 0.0 0.0 0.00 0.00 0.00 99
20240220140155 44 135 0.0 0.0 0.00 0.00 0.00 99
20240220140054 44 135 0.0 0.0 0.00 0.00 0.00 99
20240220135953 44 135 0.0 0.0 0.00 0.00 0.00 99
20240220135853 44 135 0.0 0.0 0.00 0.00 0.00 99
20240220135752 44 89 0.0 0.0 0.00 0.00 4.00 99
20240220135651 44 135 0.0 0.0 0.00 0.00 0.00 99
20240220135550 44 135 0.0 0.0 0.00 0.00 0.00 99
20240220135449 43 135 0.0 0.0 0.00 0.00 0.00 99
20240220135349 43 135 0.0 0.0 0.00 0.00 0.00 99
20240220135248 43 135 0.0 0.0 0.00 0.00 0.00 99
20240220135147 43 135 0.0 0.0 0.00 0.00 0.00 99
20240220135046 43 135 0.0 0.0 0.00 0.00 0.00 99
20240220134946 43 135 0.0 0.0 0.00 0.00 0.00 99
20240220134845 43 135 0.0 0.0 0.00 0.00 0.00 99
20240220134745 43 135 0.0 0.0 0.00 0.00 0.00 99
20240220134644 43 135 0.0 0.0 0.00 0.00 0.00 99
20240220134543 43 135 0.0 0.0 0.00 0.00 0.00 99
20240220134442 43 135 0.0 0.0 0.00 0.00 0.00 99
20240220134342 43 135 0.0 0.0 0.00 0.00 0.00 99
20240220134241 43 135 0.0 0.0 0.00 0.00 0.00 99
20240220134140 43 135 0.0 0.0 0.00 0.00 0.00 99
20240220134039 43 135 0.0 0.0 0.00 0.00 0.00 99
20240220133939 43 89 0.0 0.0 0.00 0.00 4.00 99
20240220133838 43 135 0.0 0.0 0.00 0.00 0.00 99
20240220133737 43 135 0.0 0.0 0.00 0.00 0.00 99
20240220133636 43 135 0.0 0.0 0.00 0.00 0.00 99
20240220133536 43 135 0.0 0.0 0.00 0.00 0.00 99
20240220133435 43 135 0.0 0.0 0.00 0.00 0.00 99
20240220133334 43 89 0.0 0.0 0.00 0.00 4.00 99
20240220133233 43 135 0.0 0.0 0.00 0.00 0.00 99
20240220133132 43 135 0.0 0.0 0.00 0.00 0.00 99
20240220133032 43 135 0.0 0.0 0.00 0.00 0.00 99
20240220132931 43 135 0.0 0.0 0.00 0.00 0.00 99
20240220132830 43 135 0.0 0.0 0.00 0.00 0.00 99
20240220132730 43 89 0.0 0.0 0.00 0.00 4.00 99
20240220132629 43 135 0.0 0.0 0.00 0.00 0.00 99
20240220132528 43 135 0.0 0.0 0.00 0.00 0.00 99
20240220132427 43 135 0.0 0.0 0.00 0.00 0.00 99
20240220132327 43 135 0.0 0.0 0.00 0.00 0.00 99
20240220132226 43 135 0.0 0.0 0.00 0.00 0.00 99
20240220132126 43 89 0.0 0.0 0.00 0.00 4.00 99
20240220132025 43 135 0.0 0.0 0.00 0.00 0.00 99
20240220131924 43 135 0.0 0.0 0.00 0.00 0.00 99
20240220131823 43 135 0.0 0.0 0.00 0.00 0.00 99
20240220131723 43 135 0.0 0.0 0.00 0.00 0.00 99
20240220131622 43 135 0.0 0.0 0.00 0.00 0.00 99
20240220131521 43 135 0.0 0.0 0.00 0.00 0.00 99
20240220131420 43 135 0.0 0.0 0.00 0.00 0.00 99
20240220131320 43 135 0.0 0.0 0.00 0.00 0.00 99
20240220131219 43 135 0.0 0.0 0.00 0.00 0.00 99
20240220131118 43 135 0.0 0.0 0.00 0.00 0.00 99
20240220131018 43 135 0.0 0.0 0.00 0.00 0.00 99
20240220130917 43 135 0.0 0.0 0.00 0.00 0.00 99
20240220130816 43 135 0.0 0.0 0.00 0.00 0.00 99
20240220130715 43 135 0.0 0.0 0.00 0.00 0.00 99
20240220130615 43 135 0.0 0.0 0.00 0.00 0.00 99
20240220130514 43 135 0.0 0.0 0.00 0.00 0.00 99
20240220130413 43 135 0.0 0.0 0.00 0.00 0.00 99
20240220130313 44 89 0.0 0.0 0.00 0.00 4.00 99
20240220130211 43 135 0.0 0.0 0.00 0.00 0.00 99
20240220130111 43 135 0.0 0.0 0.00 0.00 0.00 99
20240220130010 43 135 0.0 0.0 0.00 0.00 0.00 99
20240220125909 43 135 0.0 0.0 0.00 0.00 0.00 99
20240220125808 43 135 0.0 0.0 0.00 0.00 0.00 99
20240220125708 43 89 0.0 0.0 0.00 0.00 4.00 99
20240220125607 43 135 0.0 0.0 0.00 0.00 0.00 99
20240220125506 43 135 0.0 0.0 0.00 0.00 0.00 99
20240220125405 43 135 0.0 0.0 0.00 0.00 0.00 99
20240220125306 43 135 0.0 0.0 0.00 0.00 0.00 99
20240220125204 43 135 0.0 0.0 0.00 0.00 0.00 99
20240220125103 43 135 0.0 0.0 0.00 0.00 0.00 99
20240220125002 43 135 0.0 0.0 0.00 0.00 0.00 99
20240220124901 43 135 0.0 0.0 0.00 0.00 0.00 99
20240220124800 43 135 0.0 0.0 0.00 0.00 0.00 99
20240220124700 43 135 0.0 0.0 0.00 0.00 0.00 99
20240220124559 43 135 0.0 0.0 0.00 0.00 0.00 99
20240220124459 43 89 0.0 0.0 0.00 0.00 4.00 99
20240220124358 43 135 0.0 0.0 0.00 0.00 0.00 99
20240220124257 43 135 0.0 0.0 0.00 0.00 0.00 99
20240220124156 43 135 0.0 0.0 0.00 0.00 0.00 99
20240220124055 43 135 0.0 0.0 0.00 0.00 0.00 99
20240220123955 43 135 0.0 0.0 0.00 0.00 0.00 99
20240220123854 43 89 0.0 0.0 0.00 0.00 4.00 99
20240220123753 43 135 0.0 0.0 0.00 0.00 0.00 99
20240220123652 43 135 0.0 0.0 0.00 0.00 0.00 99
20240220123552 43 135 0.0 0.0 0.00 0.00 0.00 99
20240220123451 43 135 0.0 0.0 0.00 0.00 0.00 99
20240220123350 43 135 0.0 0.0 0.00 0.00 0.00 99
20240220123250 43 89 0.0 0.0 0.00 0.00 4.00 99
20240220123148 43 135 0.0 0.0 0.00 0.00 0.00 99
20240220123048 43 135 0.0 0.0 0.00 0.00 0.00 99
20240220122947 43 135 0.0 0.0 0.00 0.00 0.00 99
20240220122847 43 135 0.0 0.0 0.00 0.00 0.00 99
20240220122746 43 135 0.0 0.0 0.00 0.00 0.00 99
20240220122645 43 89 0.0 0.0 0.00 0.00 4.00 99
20240220122544 43 135 0.0 0.0 0.00 0.00 0.00 99
20240220122443 43 135 0.0 0.0 0.00 0.00 0.00 99
20240220122343 43 135 0.0 0.0 0.00 0.00 0.00 99
20240220122242 43 135 0.0 0.0 0.00 0.00 0.00 99
20240220122142 43 135 0.0 0.0 0.00 0.00 0.00 99
20240220122041 43 89 0.0 0.0 0.00 0.00 4.00 99
20240220121940 43 135 0.0 0.0 0.00 0.00 0.00 99
20240220121839 43 135 0.0 0.0 0.00 0.00 0.00 99
20240220121738 43 135 0.0 0.0 0.00 0.00 0.00 99
20240220121638 43 135 0.0 0.0 0.00 0.00 0.00 99
20240220121537 43 135 0.0 0.0 0.00 0.00 0.00 99
20240220121436 43 89 0.0 0.0 0.00 0.00 4.00 99
20240220121335 43 135 0.0 0.0 0.00 0.00 0.00 99
20240220121234 43 135 0.0 0.0 0.00 0.00 0.00 99
20240220121134 43 135 0.0 0.0 0.00 0.00 0.00 99
20240220121033 43 135 0.0 0.0 0.00 0.00 0.00 99
20240220120932 43 135 0.0 0.0 0.00 0.00 0.00 99
20240220120832 44 89 0.0 0.0 0.00 0.00 4.00 99
20240220120731 43 135 0.0 0.0 0.00 0.00 0.00 99
20240220120630 43 135 0.0 0.0 0.00 0.00 0.00 99
20240220120529 43 135 0.0 0.0 0.00 0.00 0.00 99
20240220120428 43 135 0.0 0.0 0.00 0.00 0.00 99
20240220120328 43 135 0.0 0.0 0.00 0.00 0.00 99
20240220120227 44 89 0.0 0.0 0.00 0.00 4.00 99
20240220120121 43 135 0.0 0.0 0.00 0.00 0.00 99
20240220120020 43 135 0.0 0.0 0.00 0.00 0.00 99
20240220115919 43 135 0.0 0.0 0.00 0.00 0.00 99
20240220115819 43 135 0.0 0.0 0.00 0.00 0.00 99
20240220115718 43 135 0.0 0.0 0.00 0.00 0.00 99
20240220115618 44 89 0.0 0.0 0.00 0.00 4.00 99
20240220115516 43 135 0.0 0.0 0.00 0.00 0.00 99
20240220115416 43 135 0.0 0.0 0.00 0.00 0.00 99
20240220115315 43 135 0.0 0.0 0.00 0.00 0.00 99
20240220115214 43 135 0.0 0.0 0.00 0.00 0.00 99
20240220115114 43 135 0.0 0.0 0.00 0.00 0.00 99
20240220115013 44 89 0.0 0.0 0.00 0.00 4.00 99
20240220114912 43 135 0.0 0.0 0.00 0.00 0.00 99
20240220114812 43 135 0.0 0.0 0.00 0.00 0.00 99
20240220114711 43 135 0.0 0.0 0.00 0.00 0.00 99
20240220114610 43 135 0.0 0.0 0.00 0.00 0.00 99
20240220114510 43 135 0.0 0.0 0.00 0.00 0.00 99
20240220114409 44 89 0.0 0.0 0.00 0.00 4.00 99
20240220114308 43 135 0.0 0.0 0.00 0.00 0.00 99
20240220114207 43 135 0.0 0.0 0.00 0.00 0.00 99
20240220114107 43 135 0.0 0.0 0.00 0.00 0.00 99
20240220114006 43 135 0.0 0.0 0.00 0.00 0.00 99
20240220113905 43 135 0.0 0.0 0.00 0.00 0.00 99
20240220113805 44 89 0.0 0.0 0.00 0.00 4.00 99
20240220113704 43 135 0.0 0.0 0.00 0.00 0.00 99
20240220113603 43 135 0.0 0.0 0.00 0.00 0.00 99
20240220113502 43 135 0.0 0.0 0.00 0.00 0.00 99
20240220113402 43 135 0.0 0.0 0.00 0.00 0.00 99
20240220113301 43 135 0.0 0.0 0.00 0.00 0.00 99
20240220113200 44 89 0.0 0.0 0.00 0.00 4.00 99
20240220113059 43 135 0.0 0.0 0.00 0.00 0.00 99
20240220112958 43 135 0.0 0.0 0.00 0.00 0.00 99
20240220112858 43 135 0.0 0.0 0.00 0.00 0.00 99
20240220112757 43 135 0.0 0.0 0.00 0.00 0.00 99
20240220112656 43 135 0.0 0.0 0.00 0.00 0.00 99
20240220112556 44 89 0.0 0.0 0.00 0.00 4.00 99
20240220112455 43 135 0.0 0.0 0.00 0.00 0.00 99
20240220112354 43 135 0.0 0.0 0.00 0.00 0.00 99
20240220112253 43 135 0.0 0.0 0.00 0.00 0.00 99
20240220112153 44 135 0.0 0.0 0.00 0.00 0.00 99
20240220112052 44 135 0.0 0.0 0.00 0.00 0.00 99
20240220111951 44 135 0.0 0.0 0.00 0.00 0.00 99
20240220111850 44 135 0.0 0.0 0.00 0.00 0.00 99
20240220111750 44 135 0.0 0.0 0.00 0.00 0.00 99
20240220111649 44 135 0.0 0.0 0.00 0.00 0.00 99
20240220111548 44 135 0.0 0.0 0.00 0.00 0.00 99
20240220111447 44 135 0.0 0.0 0.00 0.00 0.00 99
20240220111347 44 89 0.0 0.0 0.00 0.00 4.00 99
20240220111245 44 135 0.0 0.0 0.00 0.00 0.00 99
20240220111145 44 135 0.0 0.0 0.00 0.00 0.00 99
20240220111044 44 135 0.0 0.0 0.00 0.00 0.00 99
20240220110944 44 135 0.0 0.0 0.00 0.00 0.00 99
20240220110843 44 135 0.0 0.0 0.00 0.00 0.00 99
20240220110742 44 135 0.0 0.0 0.00 0.00 0.00 99
20240220110641 44 135 0.0 0.0 0.00 0.00 0.00 99
20240220110541 44 135 0.0 0.0 0.00 0.00 0.00 99
20240220110440 44 135 0.0 0.0 0.00 0.00 0.00 99
20240220110340 44 135 0.0 0.0 0.00 0.00 0.00 99
20240220110239 44 135 0.0 0.0 0.00 0.00 0.00 99
20240220110138 44 135 0.0 0.0 0.00 0.00 0.00 99
20240220110037 44 135 0.0 0.0 0.00 0.00 0.00 99
20240220105936 44 135 0.0 0.0 0.00 0.00 0.00 99
20240220105836 44 135 0.0 0.0 0.00 0.00 0.00 99
20240220105735 44 135 0.0 0.0 0.00 0.00 0.00 99
20240220105634 44 135 0.0 0.0 0.00 0.00 0.00 99
20240220105533 44 89 0.0 0.0 0.00 0.00 4.00 99
20240220105432 44 135 0.0 0.0 0.00 0.00 0.00 99
20240220105332 44 135 0.0 0.0 0.00 0.00 0.00 99
20240220105231 44 135 0.0 0.0 0.00 0.00 0.00 99
20240220105130 44 135 0.0 0.0 0.00 0.00 0.00 99
20240220105030 44 135 0.0 0.0 0.00 0.00 0.00 99
20240220104929 44 89 0.0 0.0 0.00 0.00 4.00 99
20240220104828 44 135 0.0 0.0 0.00 0.00 0.00 99
20240220104727 44 135 0.0 0.0 0.00 0.00 0.00 99
20240220104626 44 135 0.0 0.0 0.00 0.00 0.00 99
20240220104525 44 135 0.0 0.0 0.00 0.00 0.00 99
20240220104425 44 135 0.0 0.0 0.00 0.00 0.00 99
20240220104324 44 89 0.0 0.0 0.00 0.00 4.00 99
20240220104223 44 135 0.0 0.0 0.00 0.00 0.00 99
20240220104122 44 135 0.0 0.0 0.00 0.00 0.00 99
20240220104021 44 135 0.0 0.0 0.00 0.00 0.00 99
20240220103921 44 135 0.0 0.0 0.00 0.00 0.00 99
20240220103820 44 135 0.0 0.0 0.00 0.00 0.00 99
20240220103719 44 135 0.0 0.0 0.00 0.00 0.00 99
20240220103618 44 135 0.0 0.0 0.00 0.00 0.00 99
20240220103518 44 135 0.0 0.0 0.00 0.00 0.00 99
20240220103417 44 135 0.0 0.0 0.00 0.00 0.00 99
20240220103316 44 135 0.0 0.0 0.00 0.00 0.00 99
20240220103215 44 135 0.0 0.0 0.00 0.00 0.00 99
20240220103114 44 89 0.0 0.0 0.00 0.00 4.00 99
20240220103013 44 135 0.0 0.0 0.00 0.00 0.00 99
20240220102912 44 135 0.0 0.0 0.00 0.00 0.00 99
20240220102811 44 135 0.0 0.0 0.00 0.00 0.00 99
20240220102711 44 135 0.0 0.0 0.00 0.00 0.00 99
20240220102610 44 135 0.0 0.0 0.00 0.00 0.00 99
20240220102509 44 89 0.0 0.0 0.00 0.00 4.00 99
20240220102408 44 135 0.0 0.0 0.00 0.00 0.00 99
20240220102307 44 135 0.0 0.0 0.00 0.00 0.00 99
20240220102207 44 135 0.0 0.0 0.00 0.00 0.00 99
20240220102106 44 135 0.0 0.0 0.00 0.00 0.00 99
20240220102005 44 135 0.0 0.0 0.00 0.00 0.00 99
20240220101905 45 89 0.0 0.0 0.00 0.00 4.00 99
20240220101804 44 135 0.0 0.0 0.00 0.00 0.00 99
20240220101703 44 135 0.0 0.0 0.00 0.00 0.00 99
20240220101602 44 135 0.0 0.0 0.00 0.00 0.00 99
20240220101501 44 135 0.0 0.0 0.00 0.00 0.00 99
20240220101401 44 135 0.0 0.0 0.00 0.00 0.00 99
20240220101300 45 89 0.0 0.0 0.00 0.00 4.00 99
20240220101259 44 135 0.0 0.0 0.00 0.00 0.00 99
20240220101158 44 135 0.0 0.0 0.00 0.00 0.00 99
20240220101058 44 135 0.0 0.0 0.00 0.00 0.00 99
20240220100957 44 135 0.0 0.0 0.00 0.00 0.00 99
20240220100856 44 135 0.0 0.0 0.00 0.00 0.00 99
20240220100755 44 135 0.0 0.0 0.00 0.00 0.00 99
20240220100655 45 89 0.0 0.0 0.00 0.00 4.00 99
20240220100554 44 135 0.0 0.0 0.00 0.00 0.00 99
20240220100352 44 135 0.0 0.0 0.00 0.00 0.00 99
20240220100252 44 135 0.0 0.0 0.00 0.00 0.00 99
20240220100151 44 135 0.0 0.0 0.00 0.00 0.00 99
20240220100050 44 135 0.0 0.0 0.00 0.00 0.00 99
20240220095949 44 135 0.0 0.0 0.00 0.00 0.00 99
20240220095848 44 135 0.0 0.0 0.00 0.00 0.00 99
20240220095748 44 135 0.0 0.0 0.00 0.00 0.00 99
20240220095647 44 135 0.0 0.0 0.00 0.00 0.00 99
20240220095546 44 135 0.0 0.0 0.00 0.00 0.00 99
20240220095446 45 89 0.0 0.0 0.00 0.00 4.00 99
20240220095344 45 135 0.0 0.0 0.00 0.00 0.00 99
20240220095244 45 135 0.0 0.0 0.00 0.00 0.00 99
20240220095143 45 135 0.0 0.0 0.00 0.00 0.00 99
20240220095042 45 135 0.0 0.0 0.00 0.00 0.00 99
20240220094941 45 135 0.0 0.0 0.00 0.00 0.00 99
20240220094840 45 89 0.0 0.0 0.00 0.00 4.00 99
20240220094739 45 135 0.0 0.0 0.00 0.00 0.00 99
20240220094639 45 135 0.0 0.0 0.00 0.00 0.00 99
20240220094538 45 135 0.0 0.0 0.00 0.00 0.00 99
20240220094437 45 135 0.0 0.0 0.00 0.00 0.00 99
20240220094337 45 135 0.0 0.0 0.00 0.00 0.00 99
20240220094236 45 89 0.0 0.0 0.00 0.00 4.00 99
20240220094135 45 135 0.0 0.0 0.00 0.00 0.00 99
20240220094034 45 135 0.0 0.0 0.00 0.00 0.00 99
20240220093934 45 135 0.0 0.0 0.00 0.00 0.00 99
20240220093833 45 135 0.0 0.0 0.00 0.00 0.00 99
20240220093732 45 135 0.0 0.0 0.00 0.00 0.00 99
20240220093632 46 89 0.0 0.0 0.00 0.00 4.00 99
20240220093531 45 135 0.0 0.0 0.00 0.00 0.00 99
20240220093430 45 135 0.0 0.0 0.00 0.00 0.00 99
20240220093329 45 135 0.0 0.0 0.00 0.00 0.00 99
20240220093228 45 135 0.0 0.0 0.00 0.00 0.00 99
20240220093128 45 135 0.0 0.0 0.00 0.00 0.00 99
20240220093027 46 89 0.0 0.0 0.00 0.00 4.00 99
20240220092926 45 135 0.0 0.0 0.00 0.00 0.00 99
20240220092825 45 135 0.0 0.0 0.00 0.00 0.00 99
20240220092725 45 135 0.0 0.0 0.00 0.00 0.00 99
20240220092624 45 135 0.0 0.0 0.00 0.00 0.00 99
20240220092523 45 135 0.0 0.0 0.00 0.00 0.00 99
20240220092423 46 89 0.0 0.0 0.00 0.00 4.00 99
20240220092322 46 135 0.0 0.0 0.00 0.00 0.00 99
20240220092221 46 135 0.0 0.0 0.00 0.00 0.00 99
20240220092120 46 135 0.0 0.0 0.00 0.00 0.00 99
20240220092019 46 135 0.0 0.0 0.00 0.00 0.00 99
20240220091919 46 135 0.0 0.0 0.00 0.00 0.00 99
20240220091818 46 135 0.0 0.0 0.00 0.00 0.00 99
20240220091717 46 135 0.0 0.0 0.00 0.00 0.00 99
20240220091616 46 135 0.0 0.0 0.00 0.00 0.00 99
20240220091516 46 135 0.0 0.0 0.00 0.00 0.00 99
20240220091415 46 135 0.0 0.0 0.00 0.00 0.00 99
20240220091314 46 135 0.0 0.0 0.00 0.00 0.00 99
20240220091213 46 89 0.0 0.0 0.00 0.00 4.00 99
20240220091112 46 135 0.0 0.0 0.00 0.00 0.00 99
20240220091012 46 135 0.0 0.0 0.00 0.00 0.00 99
20240220090911 46 135 0.0 0.0 0.00 0.00 0.00 99
20240220090810 46 135 0.0 0.0 0.00 0.00 0.00 99
20240220090710 46 135 0.0 0.0 0.00 0.00 0.00 99
20240220090609 46 89 0.0 0.0 0.00 0.00 4.00 99
20240220090508 46 135 0.0 0.0 0.00 0.00 0.00 99
20240220090407 46 135 0.0 0.0 0.00 0.00 0.00 99
20240220090307 46 135 0.0 0.0 0.00 0.00 0.00 99
20240220090206 46 135 0.0 0.0 0.00 0.00 0.00 99
20240220090105 46 135 0.0 0.0 0.00 0.00 0.00 99
20240220090005 46 89 0.0 0.0 0.00 0.00 4.00 99
20240220085903 46 135 0.0 0.0 0.00 0.00 0.00 99
20240220085803 46 135 0.0 0.0 0.00 0.00 0.00 99
20240220085702 46 135 0.0 0.0 0.00 0.00 0.00 99
20240220085601 46 135 0.0 0.0 0.00 0.00 0.00 99
20240220085501 46 135 0.0 0.0 0.00 0.00 0.00 99
20240220085400 47 89 0.0 0.0 0.00 0.00 4.00 99
20240220085359 46 135 0.0 0.0 0.00 0.00 0.00 99
20240220085259 46 135 0.0 0.0 0.00 0.00 0.00 99
20240220085158 46 135 0.0 0.0 0.00 0.00 0.00 99
20240220085057 46 135 0.0 0.0 0.00 0.00 0.00 99
20240220084957 46 135 0.0 0.0 0.00 0.00 0.00 99
20240220084856 46 135 0.0 0.0 0.00 0.00 0.00 99
20240220084756 47 89 0.0 0.0 0.00 0.00 4.00 99
20240220084654 46 135 0.0 0.0 0.00 0.00 0.00 99
20240220084554 46 135 0.0 0.0 0.00 0.00 0.00 99
20240220084453 46 135 0.0 0.0 0.00 0.00 0.00 99
20240220084352 46 135 0.0 0.0 0.00 0.00 0.00 99
20240220084252 46 135 0.0 0.0 0.00 0.00 0.00 99
20240220084151 47 89 0.0 0.0 0.00 0.00 4.00 99
20240220084050 46 135 0.0 0.0 0.00 0.00 0.00 99
20240220083950 46 135 0.0 0.0 0.00 0.00 0.00 99
20240220083849 46 135 0.0 0.0 0.00 0.00 0.00 99
20240220083747 47 135 0.0 0.0 0.00 0.00 0.00 99
20240220083647 47 135 0.0 0.0 0.00 0.00 0.00 99
20240220083546 47 89 0.0 0.0 0.00 0.00 4.00 99
20240220083445 47 135 0.0 0.0 0.00 0.00 0.00 99
20240220083344 47 135 0.0 0.0 0.00 0.00 0.00 99
20240220083244 47 135 0.0 0.0 0.00 0.00 0.00 99
20240220083143 47 135 0.0 0.0 0.00 0.00 0.00 99
20240220083043 47 135 0.0 0.0 0.00 0.00 0.00 99
20240220082942 48 89 0.0 0.0 0.00 0.00 4.00 99
20240220082841 47 135 0.0 0.0 0.00 0.00 0.00 99
20240220082740 47 120 0.0 0.0 0.00 0.00 0.00 99
20240220082639 47 135 0.0 0.0 0.00 0.00 0.00 99
20240220082539 47 135 0.0 0.0 0.00 0.00 0.00 99
20240220082438 47 135 0.0 0.0 0.00 0.00 0.00 99
20240220082338 48 89 0.0 0.0 0.00 0.00 4.00 99
20240220082237 47 135 0.0 0.0 0.00 0.00 0.00 99
20240220082136 47 135 0.0 0.0 0.00 0.00 0.00 99
20240220082036 47 135 0.0 0.0 0.00 0.00 0.00 99
20240220081935 47 135 0.0 0.0 0.00 0.00 0.00 99
20240220081834 47 135 0.0 0.0 0.00 0.00 0.00 99
20240220081734 48 89 0.0 0.0 0.00 0.00 4.00 99
20240220081632 47 135 0.0 0.0 0.00 0.00 0.00 99
20240220081532 47 135 0.0 0.0 0.00 0.00 0.00 99
20240220081431 47 135 0.0 0.0 0.00 0.00 0.00 99
20240220081330 47 135 0.0 0.0 0.00 0.00 0.00 99
20240220081230 47 135 0.0 0.0 0.00 0.00 0.00 99
20240220081129 48 89 0.0 0.0 0.00 0.00 4.00 99
20240220081028 47 135 0.0 0.0 0.00 0.00 0.00 99
20240220080927 47 135 0.0 0.0 0.00 0.00 0.00 99
20240220080827 47 135 0.0 0.0 0.00 0.00 0.00 99
20240220080727 48 135 0.0 0.0 0.00 0.00 0.00 99
20240220080626 48 135 0.0 0.0 0.00 0.00 0.00 99
20240220080525 48 89 0.0 0.0 0.00 0.00 4.00 99
20240220080424 48 135 0.0 0.0 0.00 0.00 0.00 99
20240220080323 48 135 0.0 0.0 0.00 0.00 0.00 99
20240220080223 48 135 0.0 0.0 0.00 0.00 0.00 99
20240220080122 48 135 0.0 0.0 0.00 0.00 0.00 99
20240220080022 48 135 0.0 0.0 0.00 0.00 0.00 99
20240220075921 48 89 0.0 0.0 0.00 0.00 4.00 99
20240220075820 48 135 0.0 0.0 0.00 0.00 0.00 99
20240220075719 48 135 0.0 0.0 0.00 0.00 0.00 99
20240220075619 48 135 0.0 0.0 0.00 0.00 0.00 99
20240220075518 48 135 0.0 0.0 0.00 0.00 0.00 99
20240220075417 48 135 0.0 0.0 0.00 0.00 0.00 99
20240220075317 49 89 0.0 0.0 0.00 0.00 4.00 99
20240220075216 48 135 0.0 0.0 0.00 0.00 0.00 99
20240220075115 48 135 0.0 0.0 0.00 0.00 0.00 99
20240220075014 48 135 0.0 0.0 0.00 0.00 0.00 99
20240220074914 48 135 0.0 0.0 0.00 0.00 0.00 99
20240220074813 48 135 0.0 0.0 0.00 0.00 0.00 99
20240220074712 48 135 0.0 0.0 0.00 0.00 0.00 99
20240220074611 48 135 0.0 0.0 0.00 0.00 0.00 99
20240220074511 49 135 0.0 0.0 0.00 0.00 0.00 99
20240220074410 49 135 0.0 0.0 0.00 0.00 0.00 99
20240220074310 48 135 0.0 0.0 0.00 0.00 0.00 99
20240220074209 48 135 0.0 0.0 0.00 0.00 0.00 99
20240220074108 48 135 0.0 0.0 0.00 0.00 0.00 99
20240220074007 48 135 0.0 0.0 0.00 0.00 0.00 99
20240220073906 48 135 0.0 0.0 0.00 0.00 0.00 99
20240220073806 48 135 0.0 0.0 0.00 0.00 0.00 99
20240220073705 48 135 0.0 0.0 0.00 0.00 0.00 99
20240220073604 48 135 0.0 0.0 0.00 0.00 0.00 99
20240220073503 48 135 0.0 0.0 0.00 0.00 0.00 99
20240220073403 48 135 0.0 0.0 0.00 0.00 0.00 99
20240220073302 48 135 0.0 0.0 0.00 0.00 0.00 99
20240220073202 48 135 0.0 0.0 0.00 0.00 0.00 99
20240220073101 48 135 0.0 0.0 0.00 0.00 0.00 99
20240220073000 48 135 0.0 0.0 0.00 0.00 0.00 99
20240220072859 48 135 0.0 0.0 0.00 0.00 0.00 99
20240220072758 48 135 0.0 0.0 0.00 0.00 0.00 99
20240220072658 48 135 0.0 0.0 0.00 0.00 0.00 99
20240220072557 48 135 0.0 0.0 0.00 0.00 0.00 99
20240220072456 49 135 0.0 0.0 0.00 0.00 0.00 99
20240220072356 49 135 0.0 0.0 0.00 0.00 0.00 99
20240220072255 49 135 0.0 0.0 0.00 0.00 0.00 99
20240220072154 49 135 0.0 0.0 0.00 0.00 0.00 99
20240220072054 49 135 0.0 0.0 0.00 0.00 0.00 99